Wetterdaten: aktuell Samstag, 03.06.2023 17:26
Datum Zeit Temp. I. Temp. 2m Temp 5cm LF I. Luftf.2m Luftdruck Regen Wind Richtung Richtung Taupunkt Windchill Windben
03.06.2023 17:26 23,7 C 21,5 C 20,6 C 51 % 26 % 1016,9 hPa 0,0 l/m 7,9 km/h (2 Bft) SW 217 1,2 C 21,0 C 17,0 km/h (3 Bft)
03.06.2023 17:24 23,7 C 21,5 C 20,6 C 51 % 26 % 1016,9 hPa 0,0 l/m 7,7 km/h (2 Bft) S 172 1,2 C 21,0 C 11,0 km/h (2 Bft)
03.06.2023 17:22 23,7 C 21,9 C 20,8 C 51 % 26 % 1017,0 hPa 0,0 l/m 6,9 km/h (2 Bft) W-SW 240 1,5 C 21,7 C 12,0 km/h (2 Bft)
03.06.2023 17:20 23,7 C 22,0 C 21,0 C 51 % 24 % 1017,0 hPa 0,0 l/m 6,4 km/h (2 Bft) S-SW 195 0,5 C 22,0 C 16,4 km/h (3 Bft)
03.06.2023 17:18 23,7 C 22,1 C 21,3 C 51 % 24 % 1017,0 hPa 0,0 l/m 6,6 km/h (2 Bft) S 172 0,6 C 22,0 C 16,4 km/h (3 Bft)
03.06.2023 17:16 23,7 C 22,3 C 21,3 C 51 % 24 % 1017,0 hPa 0,0 l/m 6,8 km/h (2 Bft) SW 217 0,8 C 22,2 C 12,2 km/h (2 Bft)
03.06.2023 17:14 23,7 C 22,4 C 21,6 C 51 % 24 % 1017,0 hPa 0,0 l/m 6,8 km/h (2 Bft) W-NW 285 0,8 C 22,3 C 10,2 km/h (2 Bft)
03.06.2023 17:12 23,7 C 22,5 C 21,4 C 51 % 20 % 1017,0 hPa 0,0 l/m 7,2 km/h (2 Bft) W 262 -1,6 C 22,2 C 14,1 km/h (3 Bft)
03.06.2023 17:10 23,7 C 22,6 C 21,4 C 51 % 24 % 1017,0 hPa 0,0 l/m 7,1 km/h (2 Bft) SW 217 1,0 C 22,4 C 16,6 km/h (3 Bft)
03.06.2023 17:08 23,7 C 22,8 C 21,4 C 51 % 24 % 1017,0 hPa 0,0 l/m 6,6 km/h (2 Bft) S 172 1,2 C 22,7 C 16,6 km/h (3 Bft)
03.06.2023 17:06 23,7 C 23,0 C 21,4 C 51 % 24 % 1017,0 hPa 0,0 l/m 6,3 km/h (2 Bft) S-SO 150 1,3 C 23,0 C 14,1 km/h (3 Bft)
03.06.2023 17:04 23,7 C 23,1 C 21,9 C 51 % 24 % 1017,0 hPa 0,0 l/m 6,0 km/h (2 Bft) S 172 1,4 C 23,1 C 14,1 km/h (3 Bft)
03.06.2023 17:02 23,7 C 23,2 C 22,1 C 51 % 24 % 1017,2 hPa 0,0 l/m 5,6 km/h (1 Bft) SW 217 1,5 C 23,2 C 4,2 km/h (1 Bft)
03.06.2023 17:00 23,7 C 23,2 C 22,2 C 51 % 24 % 1017,2 hPa 0,0 l/m 6,0 km/h (2 Bft) W 262 1,5 C 23,2 C 8,5 km/h (2 Bft)
03.06.2023 16:58 23,7 C 23,2 C 21,9 C 51 % 24 % 1017,2 hPa 0,0 l/m 6,4 km/h (2 Bft) W-SW 240 1,5 C 23,2 C 11,0 km/h (2 Bft)
03.06.2023 16:56 23,7 C 23,1 C 21,9 C 51 % 24 % 1017,2 hPa 0,0 l/m 6,8 km/h (2 Bft) S 172 1,4 C 23,0 C 14,9 km/h (3 Bft)
03.06.2023 16:54 23,7 C 23,1 C 21,5 C 51 % 24 % 1017,2 hPa 0,0 l/m 6,9 km/h (2 Bft) SW 217 1,4 C 22,9 C 14,9 km/h (3 Bft)
03.06.2023 16:52 23,7 C 23,2 C 21,6 C 51 % 24 % 1017,2 hPa 0,0 l/m 6,1 km/h (2 Bft) SW 217 1,5 C 23,2 C 10,6 km/h (2 Bft)
03.06.2023 16:50 23,7 C 23,2 C 21,7 C 51 % 24 % 1017,2 hPa 0,0 l/m 6,1 km/h (2 Bft) SW 217 1,5 C 23,2 C 10,6 km/h (2 Bft)
03.06.2023 16:48 23,7 C 23,3 C 21,9 C 51 % 24 % 1017,2 hPa 0,0 l/m 6,3 km/h (2 Bft) SW 217 1,6 C 23,3 C 11,6 km/h (2 Bft)
03.06.2023 16:46 23,7 C 23,3 C 21,9 C 51 % 24 % 1017,2 hPa 0,0 l/m 7,2 km/h (2 Bft) S 172 1,6 C 23,1 C 11,6 km/h (2 Bft)
03.06.2023 16:44 23,7 C 23,2 C 21,9 C 51 % 24 % 1017,2 hPa 0,0 l/m 6,8 km/h (2 Bft) SW 217 1,5 C 23,1 C 7,7 km/h (2 Bft)
03.06.2023 16:42 23,7 C 23,2 C 21,8 C 51 % 24 % 1017,3 hPa 0,0 l/m 6,9 km/h (2 Bft) SW 217 1,5 C 23,0 C 8,9 km/h (2 Bft)
03.06.2023 16:40 23,7 C 23,1 C 21,6 C 51 % 24 % 1017,3 hPa 0,0 l/m 7,1 km/h (2 Bft) SW 217 1,4 C 22,9 C 9,7 km/h (2 Bft)
03.06.2023 16:38 23,7 C 23,2 C 21,6 C 51 % 21 % 1017,3 hPa 0,0 l/m 7,7 km/h (2 Bft) SW 217 -0,3 C 22,8 C 14,7 km/h (3 Bft)
03.06.2023 16:36 23,7 C 23,4 C 21,9 C 51 % 24 % 1017,3 hPa 0,0 l/m 7,9 km/h (2 Bft) N 352 1,7 C 22,9 C 14,7 km/h (3 Bft)
03.06.2023 16:34 23,7 C 23,3 C 21,9 C 51 % 24 % 1017,3 hPa 0,0 l/m 7,6 km/h (2 Bft) S-SO 150 1,6 C 22,9 C 11,8 km/h (2 Bft)
03.06.2023 16:32 23,7 C 23,2 C 21,7 C 51 % 24 % 1017,3 hPa 0,0 l/m 8,0 km/h (2 Bft) S-SW 195 1,5 C 22,7 C 11,8 km/h (2 Bft)
03.06.2023 16:30 23,7 C 23,1 C 21,6 C 51 % 24 % 1017,3 hPa 0,0 l/m 8,0 km/h (2 Bft) SW 217 1,4 C 22,6 C 12,2 km/h (2 Bft)
03.06.2023 16:28 23,7 C 23,2 C 21,4 C 51 % 21 % 1017,3 hPa 0,0 l/m 8,4 km/h (2 Bft) S-SO 150 -0,3 C 22,6 C 12,2 km/h (2 Bft)
03.06.2023 16:26 23,7 C 23,3 C 21,8 C 51 % 24 % 1017,3 hPa 0,0 l/m 7,1 km/h (2 Bft) S 172 1,6 C 23,1 C 12,2 km/h (2 Bft)
03.06.2023 16:24 23,7 C 23,3 C 21,9 C 51 % 24 % 1017,3 hPa 0,0 l/m 7,2 km/h (2 Bft) S 172 1,6 C 23,1 C 12,0 km/h (2 Bft)
03.06.2023 16:22 23,7 C 23,3 C 21,8 C 51 % 27 % 1017,4 hPa 0,0 l/m 7,6 km/h (2 Bft) SW 217 3,2 C 22,9 C 15,3 km/h (3 Bft)
03.06.2023 16:20 23,7 C 23,3 C 21,6 C 51 % 24 % 1017,4 hPa 0,0 l/m 7,6 km/h (2 Bft) S-SW 195 1,6 C 22,9 C 15,3 km/h (3 Bft)
03.06.2023 16:18 23,7 C 23,4 C 21,7 C 51 % 24 % 1017,4 hPa 0,0 l/m 7,2 km/h (2 Bft) SW 217 1,7 C 23,2 C 13,1 km/h (3 Bft)
03.06.2023 16:16 23,7 C 23,3 C 21,8 C 51 % 24 % 1017,4 hPa 0,0 l/m 7,4 km/h (2 Bft) SW 217 1,6 C 23,0 C 9,8 km/h (2 Bft)
03.06.2023 16:14 23,7 C 23,3 C 21,6 C 51 % 24 % 1017,4 hPa 0,0 l/m 8,0 km/h (2 Bft) S-SO 150 1,6 C 22,8 C 14,1 km/h (3 Bft)
03.06.2023 16:12 23,7 C 23,3 C 21,8 C 51 % 24 % 1017,4 hPa 0,0 l/m 8,0 km/h (2 Bft) S-SO 150 1,6 C 22,8 C 14,1 km/h (3 Bft)
03.06.2023 16:10 23,7 C 23,2 C 21,7 C 51 % 24 % 1017,4 hPa 0,0 l/m 8,4 km/h (2 Bft) SW 217 1,5 C 22,6 C 13,5 km/h (3 Bft)
03.06.2023 16:08 23,7 C 23,2 C 21,5 C 51 % 24 % 1017,4 hPa 0,0 l/m 8,7 km/h (2 Bft) SW 217 1,5 C 22,5 C 15,6 km/h (3 Bft)
03.06.2023 16:06 23,7 C 23,2 C 21,5 C 51 % 24 % 1017,4 hPa 0,0 l/m 8,9 km/h (2 Bft) S-SW 195 1,5 C 22,5 C 16,4 km/h (3 Bft)
03.06.2023 16:04 23,7 C 23,2 C 21,5 C 51 % 21 % 1017,4 hPa 0,0 l/m 8,9 km/h (2 Bft) SW 217 -0,3 C 22,5 C 16,4 km/h (3 Bft)
03.06.2023 16:02 23,7 C 23,2 C 21,6 C 51 % 24 % 1017,6 hPa 0,0 l/m 8,2 km/h (2 Bft) S-SO 150 1,5 C 22,7 C 13,3 km/h (3 Bft)
03.06.2023 16:00 23,7 C 23,2 C 21,7 C 51 % 24 % 1017,6 hPa 0,0 l/m 8,2 km/h (2 Bft) S-SW 195 1,5 C 22,7 C 13,5 km/h (3 Bft)
03.06.2023 15:58 23,7 C 23,2 C 21,7 C 51 % 24 % 1017,6 hPa 0,0 l/m 8,2 km/h (2 Bft) S-SW 195 1,5 C 22,7 C 18,5 km/h (3 Bft)
03.06.2023 15:56 23,7 C 23,2 C 21,6 C 51 % 24 % 1017,6 hPa 0,0 l/m 8,9 km/h (2 Bft) S-SO 150 1,5 C 22,5 C 18,5 km/h (3 Bft)
03.06.2023 15:54 23,7 C 23,2 C 21,5 C 51 % 24 % 1017,6 hPa 0,0 l/m 8,4 km/h (2 Bft) S 172 1,5 C 22,6 C 10,6 km/h (2 Bft)
03.06.2023 15:52 23,7 C 23,1 C 21,7 C 51 % 24 % 1017,6 hPa 0,0 l/m 8,0 km/h (2 Bft) SW 217 1,4 C 22,6 C 13,9 km/h (3 Bft)
03.06.2023 15:50 23,7 C 23,0 C 21,5 C 51 % 24 % 1017,6 hPa 0,0 l/m 8,7 km/h (2 Bft) S-SO 150 1,3 C 22,3 C 13,9 km/h (3 Bft)
03.06.2023 15:48 23,7 C 23,0 C 21,4 C 51 % 24 % 1017,6 hPa 0,0 l/m 8,7 km/h (2 Bft) SW 217 1,3 C 22,3 C 14,3 km/h (3 Bft)
03.06.2023 15:46 23,7 C 23,0 C 21,9 C 51 % 27 % 1017,6 hPa 0,1 l/m 8,0 km/h (2 Bft) S-SW 195 3,0 C 22,5 C 14,3 km/h (3 Bft)
03.06.2023 15:44 23,7 C 22,9 C 22,1 C 51 % 24 % 1017,6 hPa 0,0 l/m 8,2 km/h (2 Bft) W-SW 240 1,3 C 22,3 C 10,2 km/h (2 Bft)
03.06.2023 15:42 23,7 C 22,9 C 22,6 C 51 % 24 % 1017,8 hPa 0,0 l/m 8,4 km/h (2 Bft) SW 217 1,3 C 22,3 C 23,4 km/h (4 Bft)
03.06.2023 15:40 23,7 C 23,0 C 22,7 C 51 % 24 % 1017,8 hPa 0,0 l/m 8,2 km/h (2 Bft) SW 217 1,3 C 22,4 C 23,4 km/h (4 Bft)
03.06.2023 15:38 23,7 C 23,0 C 22,7 C 51 % 24 % 1017,8 hPa 0,0 l/m 8,0 km/h (2 Bft) SW 217 1,3 C 22,5 C 11,0 km/h (2 Bft)
03.06.2023 15:36 23,7 C 23,1 C 22,8 C 51 % 24 % 1017,8 hPa 0,0 l/m 7,9 km/h (2 Bft) W-SW 240 1,4 C 22,6 C 11,0 km/h (2 Bft)
03.06.2023 15:34 23,7 C 23,1 C 22,8 C 51 % 24 % 1017,8 hPa 0,0 l/m 7,7 km/h (2 Bft) SW 217 1,4 C 22,7 C 12,4 km/h (3 Bft)
03.06.2023 15:32 23,7 C 23,2 C 22,9 C 51 % 24 % 1017,8 hPa 0,0 l/m 7,6 km/h (2 Bft) SW 217 1,5 C 22,8 C 12,4 km/h (3 Bft)
03.06.2023 15:30 23,7 C 23,2 C 22,9 C 51 % 24 % 1017,8 hPa 0,0 l/m 7,1 km/h (2 Bft) S-SO 150 1,5 C 23,0 C 17,6 km/h (3 Bft)
03.06.2023 15:28 23,7 C 23,3 C 23,1 C 51 % 24 % 1017,8 hPa 0,0 l/m 6,4 km/h (2 Bft) SW 217 1,6 C 23,3 C 17,6 km/h (3 Bft)
03.06.2023 15:26 23,7 C 23,4 C 23,2 C 51 % 24 % 1017,8 hPa 0,0 l/m 5,8 km/h (2 Bft) S-SO 150 1,7 C 23,4 C 13,1 km/h (3 Bft)
03.06.2023 15:24 23,7 C 23,4 C 23,2 C 51 % 27 % 1017,8 hPa 0,0 l/m 5,6 km/h (1 Bft) SW 217 3,3 C 23,4 C 12,9 km/h (3 Bft)
03.06.2023 15:22 23,7 C 23,3 C 23,2 C 51 % 27 % 1018,1 hPa 0,0 l/m 5,6 km/h (1 Bft) SW 217 3,2 C 23,3 C 12,9 km/h (3 Bft)
03.06.2023 15:20 23,7 C 23,3 C 23,1 C 51 % 27 % 1018,1 hPa 0,0 l/m 6,3 km/h (2 Bft) W-SW 240 3,2 C 23,3 C 8,3 km/h (2 Bft)
03.06.2023 15:18 23,7 C 23,3 C 22,9 C 51 % 27 % 1018,1 hPa 0,0 l/m 6,9 km/h (2 Bft) W-SW 240 3,2 C 23,1 C 10,4 km/h (2 Bft)
03.06.2023 15:16 23,7 C 23,2 C 22,7 C 51 % 27 % 1018,1 hPa 0,0 l/m 7,7 km/h (2 Bft) W-SW 240 3,2 C 22,8 C 10,6 km/h (2 Bft)
03.06.2023 15:14 23,7 C 23,1 C 22,6 C 51 % 27 % 1018,1 hPa 0,0 l/m 8,2 km/h (2 Bft) S-SW 195 3,1 C 22,5 C 15,1 km/h (3 Bft)
03.06.2023 15:12 23,7 C 23,1 C 22,5 C 50 % 24 % 1018,1 hPa 0,0 l/m 8,5 km/h (2 Bft) S-SO 150 1,4 C 22,5 C 15,1 km/h (3 Bft)
03.06.2023 15:10 23,7 C 23,0 C 22,5 C 50 % 24 % 1018,1 hPa 0,0 l/m 9,0 km/h (2 Bft) S 172 1,3 C 22,2 C 13,7 km/h (3 Bft)
03.06.2023 15:08 23,7 C 23,0 C 22,5 C 50 % 24 % 1018,1 hPa 0,0 l/m 9,5 km/h (2 Bft) S-SO 150 1,3 C 22,1 C 13,7 km/h (3 Bft)
03.06.2023 15:06 23,7 C 23,0 C 22,5 C 50 % 27 % 1018,1 hPa 0,0 l/m 9,5 km/h (2 Bft) S-SO 150 3,0 C 22,1 C 12,7 km/h (3 Bft)
03.06.2023 15:04 23,7 C 22,9 C 22,4 C 50 % 28 % 1018,1 hPa 0,0 l/m 9,3 km/h (2 Bft) SW 217 3,4 C 22,0 C 12,2 km/h (2 Bft)
03.06.2023 15:02 23,7 C 22,9 C 22,3 C 50 % 24 % 1018,2 hPa 0,0 l/m 9,0 km/h (2 Bft) S 172 1,3 C 22,1 C 13,5 km/h (3 Bft)
03.06.2023 15:00 23,7 C 23,0 C 22,4 C 50 % 27 % 1018,2 hPa 0,0 l/m 8,2 km/h (2 Bft) S-SO 150 3,0 C 22,4 C 23,6 km/h (4 Bft)
03.06.2023 14:58 23,7 C 23,1 C 22,6 C 50 % 27 % 1018,2 hPa 0,0 l/m 7,9 km/h (2 Bft) S 172 3,1 C 22,6 C 23,6 km/h (4 Bft)
03.06.2023 14:56 23,7 C 23,1 C 22,6 C 51 % 27 % 1018,2 hPa 0,0 l/m 7,4 km/h (2 Bft) S 172 3,1 C 22,8 C 13,5 km/h (3 Bft)
03.06.2023 14:54 23,7 C 23,2 C 22,6 C 51 % 28 % 1018,2 hPa 0,0 l/m 7,4 km/h (2 Bft) S-SW 195 3,7 C 22,9 C 13,5 km/h (3 Bft)
03.06.2023 14:52 23,7 C 23,0 C 22,5 C 51 % 28 % 1018,2 hPa 0,0 l/m 7,7 km/h (2 Bft) W 262 3,5 C 22,6 C 8,9 km/h (2 Bft)
03.06.2023 14:50 23,6 C 22,9 C 22,4 C 51 % 28 % 1018,2 hPa 0,0 l/m 7,9 km/h (2 Bft) S 172 3,4 C 22,4 C 13,3 km/h (3 Bft)
03.06.2023 14:48 23,6 C 22,8 C 22,4 C 51 % 28 % 1018,2 hPa 0,0 l/m 8,2 km/h (2 Bft) S-SO 150 3,3 C 22,2 C 13,3 km/h (3 Bft)
03.06.2023 14:46 23,6 C 22,9 C 22,3 C 51 % 28 % 1018,2 hPa 0,0 l/m 8,0 km/h (2 Bft) SW 217 3,4 C 22,4 C 14,9 km/h (3 Bft)
03.06.2023 14:44 23,6 C 22,9 C 22,4 C 51 % 28 % 1018,2 hPa 0,0 l/m 8,4 km/h (2 Bft) S 172 3,4 C 22,3 C 14,9 km/h (3 Bft)
03.06.2023 14:42 23,6 C 22,9 C 22,5 C 51 % 28 % 1018,4 hPa 0,0 l/m 8,2 km/h (2 Bft) S 172 3,4 C 22,3 C 13,1 km/h (3 Bft)
03.06.2023 14:40 23,6 C 23,0 C 22,4 C 51 % 28 % 1018,4 hPa 0,0 l/m 8,0 km/h (2 Bft) W-SW 240 3,5 C 22,5 C 11,0 km/h (2 Bft)
03.06.2023 14:38 23,6 C 22,9 C 22,4 C 51 % 28 % 1018,4 hPa 0,0 l/m 8,5 km/h (2 Bft) S-SO 150 3,4 C 22,2 C 11,0 km/h (2 Bft)
03.06.2023 14:36 23,6 C 22,9 C 22,4 C 50 % 28 % 1018,4 hPa 0,0 l/m 8,4 km/h (2 Bft) S-SO 150 3,4 C 22,3 C 12,2 km/h (2 Bft)
03.06.2023 14:34 23,6 C 22,9 C 22,5 C 50 % 28 % 1018,4 hPa 0,0 l/m 8,4 km/h (2 Bft) S 172 3,4 C 22,3 C 17,2 km/h (3 Bft)
03.06.2023 14:32 23,6 C 23,0 C 22,5 C 50 % 28 % 1018,4 hPa 0,0 l/m 8,2 km/h (2 Bft) S 172 3,5 C 22,4 C 17,2 km/h (3 Bft)
03.06.2023 14:30 23,6 C 22,9 C 22,4 C 50 % 28 % 1018,4 hPa 0,0 l/m 8,2 km/h (2 Bft) S-SW 195 3,4 C 22,3 C 16,8 km/h (3 Bft)
03.06.2023 14:28 23,6 C 22,9 C 22,4 C 51 % 28 % 1018,4 hPa 0,0 l/m 8,2 km/h (2 Bft) S 172 3,4 C 22,3 C 16,8 km/h (3 Bft)
03.06.2023 14:26 23,6 C 22,8 C 22,4 C 50 % 28 % 1018,4 hPa 0,0 l/m 7,7 km/h (2 Bft) S 172 3,3 C 22,4 C 12,2 km/h (2 Bft)
03.06.2023 14:24 23,6 C 22,7 C 22,3 C 51 % 28 % 1018,4 hPa 0,0 l/m 7,2 km/h (2 Bft) S-SO 150 3,3 C 22,4 C 15,6 km/h (3 Bft)
03.06.2023 14:22 23,6 C 22,8 C 22,4 C 51 % 28 % 1018,4 hPa 0,0 l/m 7,1 km/h (2 Bft) SO 127 3,3 C 22,6 C 15,6 km/h (3 Bft)
03.06.2023 14:20 23,6 C 22,9 C 22,5 C 51 % 28 % 1018,4 hPa 0,0 l/m 6,4 km/h (2 Bft) S 172 3,4 C 22,9 C 15,6 km/h (3 Bft)
03.06.2023 14:18 23,6 C 22,8 C 22,4 C 50 % 29 % 1018,4 hPa 0,0 l/m 6,6 km/h (2 Bft) S 172 3,8 C 22,7 C 12,0 km/h (2 Bft)
03.06.2023 14:16 23,6 C 22,8 C 22,3 C 51 % 29 % 1018,4 hPa 0,0 l/m 7,6 km/h (2 Bft) S-SO 150 3,8 C 22,4 C 12,0 km/h (2 Bft)
03.06.2023 14:14 23,6 C 22,5 C 22,2 C 50 % 29 % 1018,4 hPa 0,0 l/m 7,7 km/h (2 Bft) SW 217 3,6 C 22,1 C 10,4 km/h (2 Bft)
03.06.2023 14:12 23,6 C 22,5 C 22,0 C 51 % 28 % 1018,4 hPa 0,0 l/m 7,7 km/h (2 Bft) S-SO 150 3,1 C 22,1 C 10,4 km/h (2 Bft)
03.06.2023 14:10 23,6 C 22,5 C 22,0 C 50 % 28 % 1018,4 hPa 0,0 l/m 7,4 km/h (2 Bft) W-SW 240 3,1 C 22,2 C 8,9 km/h (2 Bft)
03.06.2023 14:08 23,6 C 22,5 C 22,0 C 51 % 29 % 1018,4 hPa 0,0 l/m 7,7 km/h (2 Bft) S-SW 195 3,6 C 22,1 C 18,5 km/h (3 Bft)
03.06.2023 14:06 23,6 C 22,5 C 22,2 C 51 % 28 % 1018,4 hPa 0,0 l/m 8,0 km/h (2 Bft) S 172 3,1 C 22,0 C 18,5 km/h (3 Bft)
03.06.2023 14:04 23,6 C 22,5 C 22,1 C 51 % 30 % 1018,4 hPa 0,0 l/m 6,8 km/h (2 Bft) W-SW 240 4,1 C 22,4 C 4,1 km/h (1 Bft)
03.06.2023 14:02 23,7 C 22,4 C 21,9 C 51 % 28 % 1018,6 hPa 0,0 l/m 7,2 km/h (2 Bft) S-SW 195 3,0 C 22,1 C 8,7 km/h (2 Bft)
03.06.2023 14:00 23,6 C 22,3 C 21,9 C 51 % 28 % 1018,6 hPa 0,0 l/m 8,0 km/h (2 Bft) S-SO 150 2,9 C 21,8 C 10,0 km/h (2 Bft)
03.06.2023 13:58 23,7 C 22,3 C 21,9 C 51 % 28 % 1018,6 hPa 0,0 l/m 8,9 km/h (2 Bft) S-SO 150 2,9 C 21,5 C 12,0 km/h (2 Bft)
03.06.2023 13:56 23,6 C 22,3 C 21,9 C 51 % 29 % 1018,6 hPa 0,0 l/m 8,2 km/h (2 Bft) S-SO 150 3,4 C 21,7 C 12,0 km/h (2 Bft)
03.06.2023 13:54 23,7 C 22,1 C 21,7 C 51 % 28 % 1018,6 hPa 0,0 l/m 7,7 km/h (2 Bft) S 172 2,7 C 21,7 C 8,3 km/h (2 Bft)
03.06.2023 13:52 23,7 C 22,1 C 21,8 C 51 % 29 % 1018,6 hPa 0,0 l/m 7,7 km/h (2 Bft) W-SW 240 3,2 C 21,7 C 15,1 km/h (3 Bft)
03.06.2023 13:50 23,7 C 22,1 C 21,7 C 51 % 29 % 1018,6 hPa 0,0 l/m 8,0 km/h (2 Bft) S 172 3,2 C 21,6 C 19,9 km/h (4 Bft)
03.06.2023 13:48 23,7 C 22,2 C 21,9 C 51 % 29 % 1018,6 hPa 0,0 l/m 6,9 km/h (2 Bft) SW 217 3,3 C 22,0 C 19,9 km/h (4 Bft)
03.06.2023 13:46 23,7 C 22,2 C 21,9 C 51 % 29 % 1018,6 hPa 0,0 l/m 7,2 km/h (2 Bft) W-SW 240 3,3 C 21,9 C 8,5 km/h (2 Bft)
03.06.2023 13:44 23,7 C 22,1 C 21,8 C 51 % 29 % 1018,6 hPa 0,0 l/m 7,7 km/h (2 Bft) W 262 3,2 C 21,7 C 10,8 km/h (2 Bft)
03.06.2023 13:42 23,6 C 22,0 C 21,7 C 51 % 29 % 1018,9 hPa 0,0 l/m 7,2 km/h (2 Bft) SW 217 3,1 C 21,7 C 14,1 km/h (3 Bft)
03.06.2023 13:40 23,6 C 21,9 C 21,6 C 51 % 30 % 1018,9 hPa 0,0 l/m 7,7 km/h (2 Bft) W-SW 240 3,5 C 21,4 C 14,1 km/h (3 Bft)
03.06.2023 13:38 23,6 C 21,9 C 21,6 C 51 % 29 % 1018,9 hPa 0,0 l/m 7,4 km/h (2 Bft) S 172 3,1 C 21,5 C 13,1 km/h (3 Bft)
03.06.2023 13:36 23,6 C 22,0 C 21,8 C 51 % 29 % 1018,9 hPa 0,0 l/m 7,2 km/h (2 Bft) W-SW 240 3,1 C 21,7 C 18,3 km/h (3 Bft)
03.06.2023 13:34 23,6 C 22,0 C 21,8 C 51 % 29 % 1018,9 hPa 0,0 l/m 7,2 km/h (2 Bft) W-SW 240 3,1 C 21,7 C 18,3 km/h (3 Bft)
03.06.2023 13:32 23,6 C 21,8 C 21,7 C 51 % 30 % 1018,9 hPa 0,0 l/m 7,4 km/h (2 Bft) W-SW 240 3,5 C 21,4 C 8,1 km/h (2 Bft)
03.06.2023 13:30 23,6 C 21,8 C 21,6 C 51 % 30 % 1018,9 hPa 0,0 l/m 7,7 km/h (2 Bft) S 172 3,5 C 21,3 C 15,6 km/h (3 Bft)
03.06.2023 13:28 23,6 C 21,7 C 21,5 C 51 % 30 % 1018,9 hPa 0,0 l/m 7,6 km/h (2 Bft) W-SW 240 3,4 C 21,3 C 15,6 km/h (3 Bft)
03.06.2023 13:26 23,6 C 21,7 C 21,5 C 51 % 30 % 1018,9 hPa 0,0 l/m 7,6 km/h (2 Bft) W 262 3,4 C 21,3 C 14,3 km/h (3 Bft)
03.06.2023 13:24 23,6 C 21,7 C 21,4 C 51 % 30 % 1018,9 hPa 0,0 l/m 7,7 km/h (2 Bft) SW 217 3,4 C 21,2 C 13,3 km/h (3 Bft)
03.06.2023 13:22 23,6 C 21,6 C 21,3 C 51 % 31 % 1018,9 hPa 0,0 l/m 8,0 km/h (2 Bft) W-SW 240 3,7 C 21,0 C 8,5 km/h (2 Bft)
03.06.2023 13:20 23,6 C 21,7 C 21,2 C 51 % 31 % 1018,9 hPa 0,0 l/m 8,5 km/h (2 Bft) S-SO 150 3,8 C 21,0 C 7,9 km/h (2 Bft)
03.06.2023 13:18 23,6 C 21,5 C 21,0 C 51 % 31 % 1018,9 hPa 0,0 l/m 8,4 km/h (2 Bft) W 262 3,7 C 20,8 C 14,9 km/h (3 Bft)
03.06.2023 13:16 23,6 C 21,4 C 21,0 C 50 % 30 % 1018,9 hPa 0,0 l/m 9,5 km/h (2 Bft) S 172 3,1 C 20,3 C 14,9 km/h (3 Bft)
03.06.2023 13:14 23,6 C 21,4 C 21,0 C 50 % 30 % 1018,9 hPa 0,0 l/m 9,0 km/h (2 Bft) SW 217 3,1 C 20,5 C 12,7 km/h (3 Bft)
03.06.2023 13:12 23,6 C 21,4 C 20,9 C 50 % 30 % 1018,9 hPa 0,0 l/m 9,2 km/h (2 Bft) W-SW 240 3,1 C 20,4 C 13,3 km/h (3 Bft)
03.06.2023 13:10 23,6 C 21,4 C 20,9 C 50 % 31 % 1018,9 hPa 0,0 l/m 9,0 km/h (2 Bft) SW 217 3,6 C 20,5 C 13,3 km/h (3 Bft)
03.06.2023 13:08 23,6 C 21,4 C 20,9 C 50 % 31 % 1018,9 hPa 0,0 l/m 8,9 km/h (2 Bft) W-SW 240 3,6 C 20,5 C 24,3 km/h (4 Bft)
03.06.2023 13:06 23,6 C 21,4 C 20,9 C 50 % 30 % 1018,9 hPa 0,0 l/m 9,3 km/h (2 Bft) S 172 3,1 C 20,4 C 24,3 km/h (4 Bft)
03.06.2023 13:04 23,6 C 21,5 C 21,1 C 50 % 31 % 1018,9 hPa 0,0 l/m 8,4 km/h (2 Bft) W-SW 240 3,7 C 20,8 C 11,8 km/h (2 Bft)
03.06.2023 13:02 23,6 C 21,6 C 21,1 C 50 % 31 % 1018,9 hPa 0,0 l/m 8,2 km/h (2 Bft) S-SW 195 3,7 C 21,0 C 16,2 km/h (3 Bft)
03.06.2023 13:00 23,6 C 21,5 C 21,1 C 50 % 31 % 1018,9 hPa 0,0 l/m 8,4 km/h (2 Bft) S-SO 150 3,7 C 20,8 C 16,2 km/h (3 Bft)
03.06.2023 12:58 23,6 C 21,5 C 20,9 C 50 % 33 % 1018,9 hPa 0,0 l/m 8,5 km/h (2 Bft) S 172 4,5 C 20,8 C 11,6 km/h (2 Bft)
03.06.2023 12:56 23,6 C 21,3 C 20,9 C 50 % 32 % 1018,9 hPa 0,0 l/m 8,4 km/h (2 Bft) S-SO 150 3,9 C 20,6 C 11,6 km/h (2 Bft)
03.06.2023 12:54 23,6 C 21,2 C 20,8 C 50 % 31 % 1018,9 hPa 0,0 l/m 8,0 km/h (2 Bft) S 172 3,4 C 20,6 C 12,4 km/h (3 Bft)
03.06.2023 12:52 23,6 C 21,2 C 20,7 C 50 % 31 % 1018,9 hPa 0,0 l/m 8,5 km/h (2 Bft) SW 217 3,4 C 20,4 C 12,4 km/h (3 Bft)
03.06.2023 12:50 23,6 C 21,2 C 20,8 C 50 % 31 % 1018,9 hPa 0,0 l/m 8,5 km/h (2 Bft) SW 217 3,4 C 20,4 C 14,5 km/h (3 Bft)
03.06.2023 12:48 23,6 C 21,3 C 20,8 C 50 % 31 % 1018,9 hPa 0,0 l/m 8,7 km/h (2 Bft) SW 217 3,5 C 20,5 C 14,5 km/h (3 Bft)
03.06.2023 12:46 23,6 C 21,3 C 20,8 C 50 % 32 % 1018,9 hPa 0,0 l/m 7,9 km/h (2 Bft) SW 217 3,9 C 20,8 C 7,7 km/h (2 Bft)
03.06.2023 12:44 23,6 C 21,1 C 20,6 C 50 % 31 % 1018,9 hPa 0,0 l/m 8,4 km/h (2 Bft) S-SW 195 3,3 C 20,4 C 12,9 km/h (3 Bft)
03.06.2023 12:42 23,6 C 21,1 C 20,6 C 50 % 31 % 1019,0 hPa 0,0 l/m 8,5 km/h (2 Bft) S-SO 150 3,3 C 20,3 C 12,9 km/h (3 Bft)
03.06.2023 12:40 23,6 C 21,1 C 20,6 C 50 % 31 % 1019,0 hPa 0,0 l/m 7,9 km/h (2 Bft) S-SW 195 3,3 C 20,5 C 18,9 km/h (3 Bft)
03.06.2023 12:38 23,6 C 21,1 C 20,7 C 50 % 31 % 1019,0 hPa 0,0 l/m 8,0 km/h (2 Bft) W-SW 240 3,3 C 20,5 C 18,9 km/h (3 Bft)
03.06.2023 12:36 23,6 C 21,1 C 20,6 C 50 % 31 % 1019,0 hPa 0,0 l/m 7,9 km/h (2 Bft) S 172 3,3 C 20,5 C 15,3 km/h (3 Bft)
03.06.2023 12:34 23,6 C 21,3 C 20,8 C 50 % 32 % 1019,0 hPa 0,0 l/m 7,6 km/h (2 Bft) S-SO 150 3,9 C 20,9 C 15,3 km/h (3 Bft)
03.06.2023 12:32 23,6 C 21,2 C 20,6 C 50 % 34 % 1019,0 hPa 0,0 l/m 7,7 km/h (2 Bft) SW 217 4,7 C 20,7 C 14,1 km/h (3 Bft)
03.06.2023 12:30 23,6 C 20,9 C 20,5 C 50 % 32 % 1019,0 hPa 0,0 l/m 8,0 km/h (2 Bft) S 172 3,6 C 20,3 C 15,1 km/h (3 Bft)
03.06.2023 12:28 23,6 C 20,9 C 20,5 C 50 % 32 % 1019,0 hPa 0,0 l/m 8,4 km/h (2 Bft) SW 217 3,6 C 20,2 C 15,1 km/h (3 Bft)
03.06.2023 12:26 23,6 C 20,8 C 20,4 C 50 % 31 % 1019,0 hPa 0,0 l/m 8,4 km/h (2 Bft) S 172 3,1 C 20,0 C 9,5 km/h (2 Bft)
03.06.2023 12:24 23,6 C 20,8 C 20,3 C 50 % 32 % 1019,0 hPa 0,0 l/m 8,5 km/h (2 Bft) W-SW 240 3,5 C 20,0 C 13,1 km/h (3 Bft)
03.06.2023 12:22 23,6 C 20,8 C 20,3 C 50 % 31 % 1019,1 hPa 0,0 l/m 8,5 km/h (2 Bft) SW 217 3,1 C 20,0 C 13,1 km/h (3 Bft)
03.06.2023 12:20 23,6 C 20,8 C 20,3 C 50 % 31 % 1019,1 hPa 0,0 l/m 8,0 km/h (2 Bft) SW 217 3,1 C 20,2 C 16,0 km/h (3 Bft)
03.06.2023 12:18 23,6 C 20,8 C 20,4 C 50 % 31 % 1019,1 hPa 0,0 l/m 8,4 km/h (2 Bft) SW 217 3,1 C 20,0 C 16,0 km/h (3 Bft)
03.06.2023 12:16 23,6 C 20,8 C 20,4 C 50 % 33 % 1019,1 hPa 0,0 l/m 8,0 km/h (2 Bft) SW 217 3,9 C 20,2 C 13,7 km/h (3 Bft)
03.06.2023 12:14 23,6 C 20,7 C 20,3 C 50 % 32 % 1019,1 hPa 0,0 l/m 7,9 km/h (2 Bft) SW 217 3,4 C 20,1 C 12,7 km/h (3 Bft)
03.06.2023 12:12 23,6 C 20,5 C 20,1 C 50 % 33 % 1019,1 hPa 0,0 l/m 8,0 km/h (2 Bft) SW 217 3,7 C 19,9 C 12,7 km/h (3 Bft)
03.06.2023 12:10 23,6 C 20,4 C 20,0 C 49 % 32 % 1019,1 hPa 0,0 l/m 8,7 km/h (2 Bft) W-SW 240 3,2 C 19,5 C 15,6 km/h (3 Bft)
03.06.2023 12:08 23,6 C 20,5 C 20,0 C 49 % 31 % 1019,1 hPa 0,0 l/m 9,0 km/h (2 Bft) W-SW 240 2,8 C 19,5 C 15,6 km/h (3 Bft)
03.06.2023 12:06 23,6 C 20,5 C 20,0 C 49 % 31 % 1019,1 hPa 0,0 l/m 8,9 km/h (2 Bft) SW 217 2,8 C 19,6 C 14,5 km/h (3 Bft)
03.06.2023 12:04 23,6 C 20,4 C 19,9 C 49 % 32 % 1019,1 hPa 0,0 l/m 9,2 km/h (2 Bft) SW 217 3,2 C 19,3 C 14,5 km/h (3 Bft)
03.06.2023 12:02 23,6 C 20,4 C 19,9 C 49 % 31 % 1019,4 hPa 0,0 l/m 9,0 km/h (2 Bft) SW 217 2,7 C 19,4 C 12,4 km/h (3 Bft)
03.06.2023 12:00 23,6 C 20,3 C 19,9 C 49 % 32 % 1019,4 hPa 0,0 l/m 9,3 km/h (2 Bft) SW 217 3,1 C 19,2 C 17,6 km/h (3 Bft)
03.06.2023 11:58 23,6 C 20,3 C 19,7 C 49 % 32 % 1019,4 hPa 0,0 l/m 9,5 km/h (2 Bft) S 172 3,1 C 19,1 C 17,6 km/h (3 Bft)
03.06.2023 11:56 23,6 C 20,1 C 19,7 C 49 % 32 % 1019,4 hPa 0,0 l/m 9,5 km/h (2 Bft) S-SW 195 2,9 C 18,9 C 11,8 km/h (2 Bft)
03.06.2023 11:54 23,6 C 20,0 C 19,6 C 49 % 31 % 1019,4 hPa 0,0 l/m 10,0 km/h (2 Bft) W 262 2,4 C 18,6 C 11,4 km/h (2 Bft)
03.06.2023 11:52 23,6 C 20,0 C 19,5 C 49 % 31 % 1019,4 hPa 0,0 l/m 9,8 km/h (2 Bft) S 172 2,4 C 18,7 C 17,4 km/h (3 Bft)
03.06.2023 11:50 23,6 C 20,0 C 19,5 C 49 % 31 % 1019,4 hPa 0,0 l/m 9,5 km/h (2 Bft) S 172 2,4 C 18,8 C 19,1 km/h (3 Bft)
03.06.2023 11:48 23,6 C 20,0 C 19,6 C 49 % 30 % 1019,4 hPa 0,0 l/m 9,0 km/h (2 Bft) S 172 1,9 C 19,0 C 19,1 km/h (3 Bft)
03.06.2023 11:46 23,6 C 20,1 C 19,6 C 49 % 31 % 1019,4 hPa 0,0 l/m 8,4 km/h (2 Bft) W-SW 240 2,4 C 19,3 C 17,2 km/h (3 Bft)
03.06.2023 11:44 23,6 C 20,3 C 19,8 C 49 % 31 % 1019,4 hPa 0,0 l/m 8,0 km/h (2 Bft) S 172 2,6 C 19,7 C 17,2 km/h (3 Bft)
03.06.2023 11:42 23,6 C 20,3 C 19,8 C 49 % 32 % 1019,3 hPa 0,0 l/m 8,5 km/h (2 Bft) SW 217 3,1 C 19,5 C 14,5 km/h (3 Bft)
03.06.2023 11:40 23,6 C 20,2 C 19,7 C 49 % 32 % 1019,3 hPa 0,0 l/m 7,9 km/h (2 Bft) S 172 3,0 C 19,6 C 10,6 km/h (2 Bft)
03.06.2023 11:38 23,6 C 20,2 C 19,7 C 49 % 32 % 1019,3 hPa 0,0 l/m 8,0 km/h (2 Bft) S-SO 150 3,0 C 19,6 C 11,4 km/h (2 Bft)
03.06.2023 11:36 23,6 C 20,0 C 19,7 C 49 % 32 % 1019,3 hPa 0,0 l/m 7,7 km/h (2 Bft) S-SW 195 2,8 C 19,5 C 11,4 km/h (2 Bft)
03.06.2023 11:34 23,6 C 20,0 C 19,6 C 49 % 32 % 1019,3 hPa 0,0 l/m 7,6 km/h (2 Bft) S 172 2,8 C 19,5 C 17,6 km/h (3 Bft)
03.06.2023 11:32 23,6 C 20,0 C 19,6 C 49 % 32 % 1019,3 hPa 0,0 l/m 7,9 km/h (2 Bft) SW 217 2,8 C 19,4 C 17,6 km/h (3 Bft)
03.06.2023 11:30 23,6 C 19,9 C 19,6 C 49 % 33 % 1019,3 hPa 0,0 l/m 7,2 km/h (2 Bft) W-SW 240 3,2 C 19,6 C 8,3 km/h (2 Bft)
03.06.2023 11:28 23,6 C 19,9 C 19,5 C 49 % 32 % 1019,3 hPa 0,0 l/m 7,6 km/h (2 Bft) S 172 2,7 C 19,4 C 8,3 km/h (2 Bft)
03.06.2023 11:26 23,6 C 19,9 C 19,5 C 49 % 33 % 1019,3 hPa 0,0 l/m 7,7 km/h (2 Bft) W 262 3,2 C 19,4 C 14,5 km/h (3 Bft)
03.06.2023 11:24 23,6 C 19,9 C 19,4 C 49 % 32 % 1019,3 hPa 0,0 l/m 9,0 km/h (2 Bft) W-SW 240 2,7 C 18,9 C 16,8 km/h (3 Bft)
03.06.2023 11:22 23,7 C 19,9 C 19,2 C 49 % 32 % 1019,5 hPa 0,0 l/m 9,2 km/h (2 Bft) SW 217 2,7 C 18,8 C 16,8 km/h (3 Bft)
03.06.2023 11:20 23,6 C 19,8 C 19,0 C 49 % 33 % 1019,5 hPa 0,0 l/m 10,0 km/h (2 Bft) SW 217 3,1 C 18,4 C 29,5 km/h (5 Bft)
03.06.2023 11:18 23,6 C 19,4 C 18,8 C 49 % 31 % 1019,5 hPa 0,0 l/m 10,6 km/h (2 Bft) S-SW 195 1,8 C 17,8 C 14,3 km/h (3 Bft)
03.06.2023 11:16 23,6 C 19,3 C 18,6 C 49 % 31 % 1019,5 hPa 0,0 l/m 11,3 km/h (2 Bft) W-SW 240 1,8 C 17,4 C 14,3 km/h (3 Bft)
03.06.2023 11:14 23,6 C 19,3 C 18,6 C 49 % 30 % 1019,5 hPa 0,0 l/m 10,9 km/h (2 Bft) SW 217 1,3 C 17,6 C 16,2 km/h (3 Bft)
03.06.2023 11:12 23,7 C 19,2 C 18,6 C 49 % 30 % 1019,5 hPa 0,0 l/m 10,6 km/h (2 Bft) W 262 1,2 C 17,6 C 22,2 km/h (4 Bft)
03.06.2023 11:10 23,6 C 19,2 C 18,6 C 49 % 30 % 1019,5 hPa 0,0 l/m 10,3 km/h (2 Bft) S-SW 195 1,2 C 17,7 C 22,2 km/h (4 Bft)
03.06.2023 11:09 23,6 C 19,2 C 18,6 C 49 % 30 % 1019,5 hPa 0,0 l/m 10,3 km/h (2 Bft) S-SW 195 1,2 C 17,7 C 22,2 km/h (4 Bft)
03.06.2023 11:06 23,7 C 19,2 C 18,6 C 49 % 30 % 1019,5 hPa 0,0 l/m 10,0 km/h (2 Bft) S 172 1,2 C 17,8 C 17,4 km/h (3 Bft)
03.06.2023 11:04 23,7 C 19,2 C 18,5 C 49 % 31 % 1019,5 hPa 0,0 l/m 10,5 km/h (2 Bft) SW 217 1,7 C 17,6 C 14,3 km/h (3 Bft)
03.06.2023 11:02 23,6 C 19,1 C 18,5 C 49 % 31 % 1019,5 hPa 0,0 l/m 10,5 km/h (2 Bft) SW 217 1,6 C 17,5 C 13,5 km/h (3 Bft)
03.06.2023 11:00 23,7 C 19,1 C 18,4 C 49 % 31 % 1019,5 hPa 0,0 l/m 10,1 km/h (2 Bft) SW 217 1,6 C 17,6 C 18,9 km/h (3 Bft)
03.06.2023 10:58 23,7 C 19,0 C 18,2 C 49 % 31 % 1019,5 hPa 0,0 l/m 10,8 km/h (2 Bft) SW 217 1,5 C 17,3 C 23,0 km/h (4 Bft)
03.06.2023 10:56 23,7 C 19,0 C 18,3 C 49 % 31 % 1019,5 hPa 0,0 l/m 10,3 km/h (2 Bft) SW 217 1,5 C 17,4 C 23,0 km/h (4 Bft)
03.06.2023 10:54 23,7 C 19,0 C 18,4 C 49 % 31 % 1019,5 hPa 0,0 l/m 10,1 km/h (2 Bft) S 172 1,5 C 17,5 C 15,1 km/h (3 Bft)
03.06.2023 10:52 23,7 C 19,0 C 18,3 C 49 % 31 % 1019,5 hPa 0,0 l/m 9,7 km/h (2 Bft) W-SW 240 1,5 C 17,6 C 11,4 km/h (2 Bft)
03.06.2023 10:50 23,7 C 19,0 C 18,2 C 49 % 31 % 1019,5 hPa 0,0 l/m 9,5 km/h (2 Bft) S 172 1,5 C 17,7 C 19,5 km/h (3 Bft)
03.06.2023 10:48 23,7 C 19,0 C 18,2 C 50 % 31 % 1019,5 hPa 0,0 l/m 9,0 km/h (2 Bft) S 172 1,5 C 17,9 C 19,5 km/h (3 Bft)
03.06.2023 10:46 23,7 C 18,9 C 18,2 C 50 % 32 % 1019,5 hPa 0,0 l/m 9,3 km/h (2 Bft) SW 217 1,8 C 17,7 C 16,6 km/h (3 Bft)
03.06.2023 10:44 23,7 C 19,0 C 18,3 C 50 % 31 % 1019,5 hPa 0,0 l/m 9,2 km/h (2 Bft) S 172 1,5 C 17,8 C 16,6 km/h (3 Bft)
03.06.2023 10:42 23,7 C 18,9 C 18,2 C 50 % 34 % 1019,6 hPa 0,0 l/m 9,3 km/h (2 Bft) SW 217 2,7 C 17,7 C 16,2 km/h (3 Bft)
03.06.2023 10:40 23,7 C 18,7 C 17,9 C 49 % 34 % 1019,6 hPa 0,0 l/m 9,5 km/h (2 Bft) W-SW 240 2,5 C 17,4 C 13,5 km/h (3 Bft)
03.06.2023 10:38 23,7 C 18,6 C 17,8 C 49 % 33 % 1019,6 hPa 0,0 l/m 9,8 km/h (2 Bft) SW 217 2,0 C 17,2 C 13,7 km/h (3 Bft)
03.06.2023 10:36 23,7 C 18,5 C 17,8 C 50 % 33 % 1019,6 hPa 0,0 l/m 10,3 km/h (2 Bft) S-SW 195 1,9 C 16,9 C 15,8 km/h (3 Bft)
03.06.2023 10:34 23,7 C 18,4 C 17,8 C 50 % 33 % 1019,6 hPa 0,0 l/m 10,3 km/h (2 Bft) W-SW 240 1,8 C 16,8 C 15,8 km/h (3 Bft)
03.06.2023 10:32 23,7 C 18,4 C 17,8 C 50 % 32 % 1019,6 hPa 0,0 l/m 10,3 km/h (2 Bft) W-SW 240 1,4 C 16,8 C 11,4 km/h (2 Bft)
03.06.2023 10:30 23,7 C 18,4 C 17,7 C 50 % 34 % 1019,6 hPa 0,0 l/m 10,5 km/h (2 Bft) O-SO 105 2,3 C 16,7 C 27,6 km/h (4 Bft)
03.06.2023 10:28 23,7 C 18,3 C 17,5 C 50 % 33 % 1019,6 hPa 0,0 l/m 10,8 km/h (2 Bft) S-SO 150 1,8 C 16,5 C 15,1 km/h (3 Bft)
03.06.2023 10:26 23,7 C 18,3 C 17,5 C 50 % 33 % 1019,6 hPa 0,0 l/m 10,6 km/h (2 Bft) S 172 1,8 C 16,5 C 19,5 km/h (3 Bft)
03.06.2023 10:24 23,7 C 18,3 C 17,6 C 50 % 32 % 1019,6 hPa 0,0 l/m 10,1 km/h (2 Bft) S 172 1,3 C 16,7 C 19,5 km/h (3 Bft)
03.06.2023 10:22 23,7 C 18,3 C 17,5 C 50 % 33 % 1019,7 hPa 0,0 l/m 10,1 km/h (2 Bft) S 172 1,8 C 16,7 C 14,1 km/h (3 Bft)
03.06.2023 10:20 23,7 C 18,3 C 17,5 C 50 % 34 % 1019,7 hPa 0,0 l/m 10,0 km/h (2 Bft) SW 217 2,2 C 16,8 C 14,9 km/h (3 Bft)
03.06.2023 10:18 23,7 C 18,2 C 17,5 C 50 % 33 % 1019,7 hPa 0,0 l/m 9,8 km/h (2 Bft) S-SO 150 1,7 C 16,7 C 14,9 km/h (3 Bft)
03.06.2023 10:16 23,7 C 18,2 C 17,4 C 50 % 33 % 1019,7 hPa 0,0 l/m 9,8 km/h (2 Bft) S 172 1,7 C 16,7 C 13,3 km/h (3 Bft)
03.06.2023 10:14 23,7 C 18,1 C 17,4 C 50 % 33 % 1019,7 hPa 0,0 l/m 10,1 km/h (2 Bft) S 172 1,6 C 16,5 C 17,8 km/h (3 Bft)
03.06.2023 10:12 23,7 C 18,1 C 17,3 C 50 % 34 % 1019,7 hPa 0,0 l/m 10,5 km/h (2 Bft) S-SW 195 2,0 C 16,4 C 17,8 km/h (3 Bft)
03.06.2023 10:10 23,7 C 18,0 C 17,2 C 50 % 34 % 1019,7 hPa 0,0 l/m 10,0 km/h (2 Bft) S-SW 195 1,9 C 16,4 C 17,2 km/h (3 Bft)
03.06.2023 10:08 23,7 C 17,9 C 17,1 C 50 % 34 % 1019,7 hPa 0,0 l/m 9,5 km/h (2 Bft) SW 217 1,8 C 16,5 C 17,2 km/h (3 Bft)
03.06.2023 10:06 23,7 C 17,9 C 17,1 C 50 % 33 % 1019,7 hPa 0,0 l/m 9,7 km/h (2 Bft) SW 217 1,4 C 16,4 C 12,0 km/h (2 Bft)
03.06.2023 10:04 23,6 C 17,9 C 17,2 C 50 % 33 % 1019,7 hPa 0,0 l/m 9,7 km/h (2 Bft) SW 217 1,4 C 16,4 C 14,1 km/h (3 Bft)
03.06.2023 10:02 23,6 C 18,0 C 17,2 C 50 % 34 % 1019,5 hPa 0,0 l/m 9,3 km/h (2 Bft) S-SW 195 1,9 C 16,7 C 14,1 km/h (3 Bft)
03.06.2023 10:00 23,7 C 17,9 C 17,1 C 50 % 37 % 1019,5 hPa 0,0 l/m 8,9 km/h (2 Bft) S-SO 150 3,0 C 16,8 C 12,6 km/h (3 Bft)
03.06.2023 09:58 23,7 C 17,7 C 16,9 C 50 % 36 % 1019,5 hPa 0,0 l/m 9,2 km/h (2 Bft) S-SO 150 2,4 C 16,4 C 16,6 km/h (3 Bft)
03.06.2023 09:56 23,7 C 17,7 C 16,9 C 50 % 35 % 1019,5 hPa 0,0 l/m 9,0 km/h (2 Bft) S 172 2,1 C 16,5 C 16,6 km/h (3 Bft)
03.06.2023 09:54 23,7 C 17,8 C 17,1 C 50 % 38 % 1019,5 hPa 0,0 l/m 8,9 km/h (2 Bft) W 262 3,3 C 16,7 C 19,7 km/h (3 Bft)
03.06.2023 09:52 23,7 C 17,8 C 16,9 C 50 % 38 % 1019,5 hPa 0,0 l/m 8,2 km/h (2 Bft) SW 217 3,3 C 17,0 C 19,7 km/h (3 Bft)
03.06.2023 09:50 23,7 C 17,6 C 16,9 C 50 % 36 % 1019,5 hPa 0,0 l/m 8,5 km/h (2 Bft) SW 217 2,4 C 16,6 C 14,9 km/h (3 Bft)
03.06.2023 09:48 23,6 C 17,5 C 16,8 C 50 % 35 % 1019,5 hPa 0,0 l/m 8,7 km/h (2 Bft) W-SW 240 1,9 C 16,4 C 17,2 km/h (3 Bft)
03.06.2023 09:46 23,7 C 17,5 C 16,7 C 50 % 35 % 1019,5 hPa 0,0 l/m 9,3 km/h (2 Bft) W-SW 240 1,9 C 16,2 C 17,2 km/h (3 Bft)
03.06.2023 09:44 23,6 C 17,4 C 16,7 C 50 % 36 % 1019,5 hPa 0,0 l/m 9,0 km/h (2 Bft) S 172 2,2 C 16,2 C 14,5 km/h (3 Bft)
03.06.2023 09:42 23,7 C 17,3 C 16,6 C 50 % 36 % 1019,5 hPa 0,0 l/m 9,7 km/h (2 Bft) S 172 2,1 C 15,8 C 13,5 km/h (3 Bft)
03.06.2023 09:40 23,7 C 17,3 C 16,5 C 50 % 37 % 1019,5 hPa 0,0 l/m 9,8 km/h (2 Bft) S-SW 195 2,5 C 15,7 C 13,5 km/h (3 Bft)
03.06.2023 09:38 23,7 C 17,2 C 16,4 C 50 % 36 % 1019,5 hPa 0,0 l/m 10,1 km/h (2 Bft) SW 217 2,0 C 15,5 C 10,4 km/h (2 Bft)
03.06.2023 09:36 23,6 C 17,1 C 16,3 C 50 % 37 % 1019,5 hPa 0,0 l/m 9,5 km/h (2 Bft) W 262 2,3 C 15,6 C 12,6 km/h (3 Bft)
03.06.2023 09:34 23,6 C 17,0 C 16,2 C 50 % 36 % 1019,5 hPa 0,0 l/m 9,7 km/h (2 Bft) S 172 1,8 C 15,4 C 16,4 km/h (3 Bft)
03.06.2023 09:32 23,7 C 16,9 C 16,1 C 50 % 36 % 1019,5 hPa 0,0 l/m 9,5 km/h (2 Bft) S 172 1,7 C 15,4 C 18,3 km/h (3 Bft)
03.06.2023 09:30 23,7 C 17,0 C 16,2 C 50 % 37 % 1019,5 hPa 0,0 l/m 9,8 km/h (2 Bft) SW 217 2,2 C 15,4 C 18,3 km/h (3 Bft)
03.06.2023 09:28 23,6 C 16,9 C 16,0 C 50 % 38 % 1019,5 hPa 0,0 l/m 9,7 km/h (2 Bft) SO 127 2,5 C 15,3 C 14,5 km/h (3 Bft)
03.06.2023 09:26 23,7 C 16,8 C 15,9 C 50 % 38 % 1019,5 hPa 0,0 l/m 10,0 km/h (2 Bft) SW 217 2,4 C 15,1 C 17,2 km/h (3 Bft)
03.06.2023 09:24 23,7 C 16,7 C 15,8 C 50 % 37 % 1019,5 hPa 0,0 l/m 9,7 km/h (2 Bft) S 172 1,9 C 15,1 C 17,2 km/h (3 Bft)
03.06.2023 09:22 23,7 C 16,7 C 15,8 C 50 % 36 % 1019,5 hPa 0,0 l/m 9,5 km/h (2 Bft) SW 217 1,6 C 15,2 C 19,1 km/h (3 Bft)
03.06.2023 09:20 23,6 C 16,6 C 15,7 C 50 % 38 % 1019,5 hPa 0,0 l/m 9,7 km/h (2 Bft) W-SW 240 2,2 C 15,0 C 19,1 km/h (3 Bft)
03.06.2023 09:18 23,6 C 16,6 C 15,7 C 50 % 37 % 1019,5 hPa 0,0 l/m 9,7 km/h (2 Bft) S 172 1,9 C 15,0 C 16,8 km/h (3 Bft)
03.06.2023 09:16 23,6 C 16,8 C 15,8 C 50 % 38 % 1019,5 hPa 0,0 l/m 8,9 km/h (2 Bft) S 172 2,4 C 15,6 C 16,0 km/h (3 Bft)
03.06.2023 09:14 23,7 C 16,7 C 15,8 C 50 % 38 % 1019,5 hPa 0,0 l/m 9,2 km/h (2 Bft) S 172 2,3 C 15,3 C 16,4 km/h (3 Bft)
03.06.2023 09:12 23,7 C 16,7 C 15,7 C 50 % 37 % 1019,5 hPa 0,0 l/m 9,3 km/h (2 Bft) S-SW 195 1,9 C 15,3 C 16,4 km/h (3 Bft)
03.06.2023 09:10 23,7 C 16,7 C 15,7 C 50 % 38 % 1019,5 hPa 0,0 l/m 9,7 km/h (2 Bft) SW 217 2,3 C 15,1 C 17,2 km/h (3 Bft)
03.06.2023 09:08 23,7 C 16,6 C 15,7 C 50 % 39 % 1019,5 hPa 0,0 l/m 9,7 km/h (2 Bft) S 172 2,6 C 15,0 C 17,2 km/h (3 Bft)
03.06.2023 09:06 23,7 C 16,4 C 15,6 C 50 % 38 % 1019,5 hPa 0,0 l/m 10,5 km/h (2 Bft) S-SO 150 2,1 C 14,5 C 13,5 km/h (3 Bft)
03.06.2023 09:04 23,7 C 16,3 C 15,4 C 50 % 38 % 1019,5 hPa 0,0 l/m 10,9 km/h (2 Bft) S 172 2,0 C 14,2 C 14,9 km/h (3 Bft)
03.06.2023 09:02 23,7 C 16,2 C 15,3 C 50 % 38 % 1019,4 hPa 0,0 l/m 11,7 km/h (2 Bft) S-SO 150 1,9 C 13,8 C 14,9 km/h (3 Bft)
03.06.2023 09:00 23,7 C 16,2 C 15,3 C 50 % 38 % 1019,4 hPa 0,0 l/m 11,9 km/h (2 Bft) W-SW 240 1,9 C 13,7 C 16,8 km/h (3 Bft)
03.06.2023 08:59 23,7 C 16,2 C 15,3 C 50 % 38 % 1019,4 hPa 0,0 l/m 11,9 km/h (2 Bft) W-SW 240 1,9 C 13,7 C 16,8 km/h (3 Bft)
03.06.2023 08:56 23,7 C 16,1 C 15,2 C 50 % 39 % 1019,4 hPa 0,0 l/m 11,6 km/h (2 Bft) SW 217 2,1 C 13,7 C 16,4 km/h (3 Bft)
03.06.2023 08:54 23,7 C 16,1 C 15,2 C 50 % 39 % 1019,4 hPa 0,0 l/m 11,3 km/h (2 Bft) S-SO 150 2,1 C 13,8 C 18,0 km/h (3 Bft)
03.06.2023 08:52 23,7 C 16,1 C 15,2 C 50 % 39 % 1019,4 hPa 0,0 l/m 10,5 km/h (2 Bft) SW 217 2,1 C 14,1 C 21,6 km/h (4 Bft)
03.06.2023 08:50 23,7 C 16,2 C 15,3 C 51 % 39 % 1019,4 hPa 0,0 l/m 10,3 km/h (2 Bft) S 172 2,2 C 14,3 C 21,6 km/h (4 Bft)
03.06.2023 08:48 23,7 C 16,1 C 15,3 C 51 % 41 % 1019,4 hPa 0,0 l/m 10,6 km/h (2 Bft) SW 217 2,8 C 14,1 C 20,1 km/h (4 Bft)
03.06.2023 08:46 23,8 C 16,1 C 15,2 C 51 % 40 % 1019,4 hPa 0,0 l/m 10,8 km/h (2 Bft) S 172 2,5 C 14,0 C 18,0 km/h (3 Bft)
03.06.2023 08:44 23,8 C 16,0 C 15,1 C 51 % 40 % 1019,4 hPa 0,0 l/m 10,6 km/h (2 Bft) S 172 2,4 C 14,0 C 18,0 km/h (3 Bft)
03.06.2023 08:42 23,8 C 15,9 C 15,0 C 51 % 38 % 1019,6 hPa 0,0 l/m 11,1 km/h (2 Bft) W 262 1,6 C 13,7 C 17,0 km/h (3 Bft)
03.06.2023 08:40 23,8 C 15,9 C 15,0 C 51 % 38 % 1019,6 hPa 0,0 l/m 11,3 km/h (2 Bft) SW 217 1,6 C 13,6 C 26,1 km/h (4 Bft)
03.06.2023 08:38 23,8 C 15,9 C 15,0 C 51 % 38 % 1019,6 hPa 0,0 l/m 10,6 km/h (2 Bft) SW 217 1,6 C 13,9 C 26,1 km/h (4 Bft)
03.06.2023 08:36 23,8 C 15,9 C 15,0 C 51 % 39 % 1019,6 hPa 0,0 l/m 9,7 km/h (2 Bft) SW 217 2,0 C 14,2 C 17,6 km/h (3 Bft)
03.06.2023 08:34 23,8 C 15,9 C 14,9 C 51 % 39 % 1019,6 hPa 0,0 l/m 9,7 km/h (2 Bft) S-SO 150 2,0 C 14,2 C 14,9 km/h (3 Bft)
03.06.2023 08:32 23,8 C 15,7 C 14,9 C 51 % 40 % 1019,6 hPa 0,0 l/m 10,1 km/h (2 Bft) S 172 2,1 C 13,8 C 16,8 km/h (3 Bft)
03.06.2023 08:30 23,8 C 15,7 C 14,8 C 51 % 40 % 1019,6 hPa 0,0 l/m 10,0 km/h (2 Bft) S 172 2,1 C 13,9 C 16,8 km/h (3 Bft)
03.06.2023 08:28 23,8 C 15,6 C 14,7 C 51 % 39 % 1019,6 hPa 0,0 l/m 10,1 km/h (2 Bft) S 172 1,7 C 13,7 C 11,6 km/h (2 Bft)
03.06.2023 08:26 23,8 C 15,5 C 14,7 C 51 % 39 % 1019,6 hPa 0,0 l/m 10,3 km/h (2 Bft) W 262 1,6 C 13,5 C 14,3 km/h (3 Bft)
03.06.2023 08:24 23,8 C 15,5 C 14,6 C 51 % 40 % 1019,6 hPa 0,0 l/m 10,5 km/h (2 Bft) SW 217 2,0 C 13,5 C 14,3 km/h (3 Bft)
03.06.2023 08:22 23,8 C 15,5 C 14,5 C 51 % 41 % 1019,4 hPa 0,0 l/m 10,3 km/h (2 Bft) SW 217 2,3 C 13,5 C 15,3 km/h (3 Bft)
03.06.2023 08:20 23,8 C 15,4 C 14,5 C 51 % 41 % 1019,4 hPa 0,0 l/m 10,5 km/h (2 Bft) S 172 2,2 C 13,3 C 24,7 km/h (4 Bft)
03.06.2023 08:18 23,8 C 15,4 C 14,4 C 51 % 41 % 1019,4 hPa 0,0 l/m 10,5 km/h (2 Bft) S-SW 195 2,2 C 13,3 C 13,7 km/h (3 Bft)
03.06.2023 08:16 23,8 C 15,4 C 14,4 C 51 % 41 % 1019,4 hPa 0,0 l/m 10,6 km/h (2 Bft) W-SW 240 2,2 C 13,3 C 11,8 km/h (2 Bft)
03.06.2023 08:14 23,8 C 15,4 C 14,4 C 51 % 41 % 1019,4 hPa 0,0 l/m 10,6 km/h (2 Bft) S-SO 150 2,2 C 13,3 C 14,3 km/h (3 Bft)
03.06.2023 08:12 23,8 C 15,4 C 14,4 C 51 % 41 % 1019,4 hPa 0,0 l/m 10,8 km/h (2 Bft) SW 217 2,2 C 13,2 C 19,7 km/h (3 Bft)
03.06.2023 08:10 23,8 C 15,4 C 14,3 C 51 % 43 % 1019,4 hPa 0,0 l/m 10,9 km/h (2 Bft) N-NO 15 2,9 C 13,2 C 21,0 km/h (4 Bft)
03.06.2023 08:08 23,8 C 15,3 C 14,3 C 51 % 42 % 1019,4 hPa 0,0 l/m 10,9 km/h (2 Bft) S-SO 150 2,5 C 13,1 C 16,8 km/h (3 Bft)
03.06.2023 08:06 23,8 C 15,3 C 14,3 C 51 % 42 % 1019,4 hPa 0,0 l/m 10,5 km/h (2 Bft) S-SW 195 2,5 C 13,2 C 15,3 km/h (3 Bft)
03.06.2023 08:04 23,8 C 15,3 C 14,3 C 51 % 43 % 1019,4 hPa 0,0 l/m 9,8 km/h (2 Bft) W-SW 240 2,8 C 13,5 C 12,6 km/h (3 Bft)
03.06.2023 08:02 23,8 C 15,3 C 14,3 C 52 % 44 % 1019,2 hPa 0,0 l/m 9,3 km/h (2 Bft) SW 217 3,1 C 13,8 C 21,0 km/h (4 Bft)
03.06.2023 08:00 23,8 C 15,3 C 14,3 C 52 % 44 % 1019,2 hPa 0,0 l/m 8,5 km/h (2 Bft) S 172 3,1 C 14,2 C 13,9 km/h (3 Bft)
03.06.2023 07:58 23,8 C 15,3 C 14,3 C 52 % 44 % 1019,2 hPa 0,0 l/m 8,7 km/h (2 Bft) S 172 3,1 C 14,1 C 15,3 km/h (3 Bft)
03.06.2023 07:56 23,8 C 15,3 C 14,4 C 51 % 45 % 1019,2 hPa 0,0 l/m 8,4 km/h (2 Bft) SW 217 3,4 C 14,2 C 15,3 km/h (3 Bft)
03.06.2023 07:54 23,8 C 15,3 C 14,3 C 52 % 46 % 1019,2 hPa 0,0 l/m 7,9 km/h (2 Bft) W-SW 240 3,8 C 14,5 C 15,3 km/h (3 Bft)
03.06.2023 07:52 23,8 C 15,2 C 14,2 C 52 % 46 % 1019,2 hPa 0,0 l/m 7,7 km/h (2 Bft) S 172 3,7 C 14,5 C 15,3 km/h (3 Bft)
03.06.2023 07:50 23,8 C 15,1 C 14,2 C 52 % 46 % 1019,2 hPa 0,0 l/m 8,2 km/h (2 Bft) S 172 3,6 C 14,1 C 13,9 km/h (3 Bft)
03.06.2023 07:48 23,8 C 15,1 C 14,1 C 52 % 46 % 1019,2 hPa 0,0 l/m 8,4 km/h (2 Bft) NO 37 3,6 C 14,0 C 13,9 km/h (3 Bft)
03.06.2023 07:46 23,8 C 15,1 C 14,1 C 52 % 47 % 1019,2 hPa 0,0 l/m 7,9 km/h (2 Bft) SW 217 3,9 C 14,3 C 12,2 km/h (2 Bft)
03.06.2023 07:44 23,8 C 15,0 C 14,1 C 52 % 48 % 1019,2 hPa 0,0 l/m 7,4 km/h (2 Bft) S-SO 150 4,1 C 14,4 C 9,1 km/h (2 Bft)
03.06.2023 07:42 23,8 C 14,9 C 14,0 C 52 % 48 % 1019,1 hPa 0,0 l/m 7,9 km/h (2 Bft) SW 217 4,0 C 14,1 C 11,2 km/h (2 Bft)
03.06.2023 07:40 23,8 C 14,9 C 14,0 C 52 % 49 % 1019,1 hPa 0,0 l/m 7,9 km/h (2 Bft) SW 217 4,3 C 14,1 C 12,0 km/h (2 Bft)
03.06.2023 07:38 23,8 C 14,8 C 14,0 C 52 % 50 % 1019,1 hPa 0,0 l/m 7,7 km/h (2 Bft) S-SW 195 4,5 C 14,1 C 12,0 km/h (2 Bft)
03.06.2023 07:36 23,8 C 14,8 C 13,9 C 52 % 49 % 1019,1 hPa 0,0 l/m 8,0 km/h (2 Bft) SW 217 4,2 C 13,9 C 8,7 km/h (2 Bft)
03.06.2023 07:34 23,8 C 14,7 C 13,8 C 52 % 50 % 1019,1 hPa 0,0 l/m 8,2 km/h (2 Bft) O-SO 105 4,4 C 13,7 C 14,7 km/h (3 Bft)
03.06.2023 07:32 23,8 C 14,6 C 13,8 C 52 % 50 % 1019,1 hPa 0,0 l/m 8,2 km/h (2 Bft) SW 217 4,3 C 13,6 C 14,7 km/h (3 Bft)
03.06.2023 07:30 23,8 C 14,6 C 13,7 C 52 % 50 % 1019,1 hPa 0,0 l/m 7,9 km/h (2 Bft) S-SW 195 4,3 C 13,7 C 13,1 km/h (3 Bft)
03.06.2023 07:28 23,8 C 14,6 C 13,7 C 52 % 51 % 1019,1 hPa 0,0 l/m 7,4 km/h (2 Bft) SW 217 4,6 C 14,0 C 13,7 km/h (3 Bft)
03.06.2023 07:26 23,8 C 14,6 C 13,7 C 52 % 51 % 1019,1 hPa 0,0 l/m 7,2 km/h (2 Bft) S 172 4,6 C 14,1 C 14,3 km/h (3 Bft)
03.06.2023 07:24 23,8 C 14,6 C 13,7 C 52 % 52 % 1019,1 hPa 0,0 l/m 6,6 km/h (2 Bft) SW 217 4,9 C 14,5 C 14,3 km/h (3 Bft)
03.06.2023 07:22 23,8 C 14,5 C 13,6 C 52 % 53 % 1019,1 hPa 0,0 l/m 6,4 km/h (2 Bft) S-SW 195 5,0 C 14,5 C 12,2 km/h (2 Bft)
03.06.2023 07:20 23,8 C 14,4 C 13,6 C 52 % 53 % 1019,1 hPa 0,0 l/m 6,0 km/h (2 Bft) SO 127 4,9 C 14,4 C 13,3 km/h (3 Bft)
03.06.2023 07:18 23,8 C 14,3 C 13,5 C 52 % 54 % 1019,1 hPa 0,0 l/m 6,1 km/h (2 Bft) S 172 5,1 C 14,3 C 13,3 km/h (3 Bft)
03.06.2023 07:16 23,8 C 14,3 C 13,4 C 52 % 54 % 1019,1 hPa 0,0 l/m 6,0 km/h (2 Bft) S 172 5,1 C 14,3 C 10,6 km/h (2 Bft)
03.06.2023 07:14 23,9 C 14,2 C 13,4 C 52 % 54 % 1019,1 hPa 0,0 l/m 5,5 km/h (1 Bft) S-SO 150 5,0 C 14,2 C 9,7 km/h (2 Bft)
03.06.2023 07:12 23,8 C 14,2 C 13,3 C 52 % 54 % 1019,1 hPa 0,0 l/m 6,0 km/h (2 Bft) S-SO 150 5,0 C 14,2 C 9,7 km/h (2 Bft)
03.06.2023 07:10 23,8 C 14,1 C 13,2 C 52 % 55 % 1019,1 hPa 0,0 l/m 5,8 km/h (2 Bft) W-SW 240 5,2 C 14,1 C 8,1 km/h (2 Bft)
03.06.2023 07:08 23,8 C 14,1 C 13,2 C 52 % 55 % 1019,1 hPa 0,0 l/m 6,0 km/h (2 Bft) SW 217 5,2 C 14,1 C 8,1 km/h (2 Bft)
03.06.2023 07:06 23,8 C 14,0 C 13,1 C 52 % 55 % 1019,1 hPa 0,0 l/m 5,6 km/h (1 Bft) SW 217 5,1 C 14,0 C 6,2 km/h (2 Bft)
03.06.2023 07:04 23,8 C 14,0 C 13,1 C 52 % 55 % 1019,1 hPa 0,0 l/m 5,6 km/h (1 Bft) SW 217 5,1 C 14,0 C 10,8 km/h (2 Bft)
03.06.2023 07:02 23,8 C 13,9 C 13,1 C 52 % 56 % 1019,2 hPa 0,0 l/m 5,8 km/h (2 Bft) SW 217 5,3 C 13,9 C 10,8 km/h (2 Bft)
03.06.2023 07:00 23,8 C 13,9 C 13,0 C 52 % 56 % 1019,2 hPa 0,0 l/m 5,8 km/h (2 Bft) S 172 5,3 C 13,9 C 9,5 km/h (2 Bft)
03.06.2023 06:58 23,8 C 13,8 C 12,9 C 52 % 56 % 1019,2 hPa 0,0 l/m 6,1 km/h (2 Bft) S-SO 150 5,2 C 13,8 C 9,5 km/h (2 Bft)
03.06.2023 06:56 23,8 C 13,7 C 12,8 C 52 % 56 % 1019,2 hPa 0,0 l/m 6,0 km/h (2 Bft) S-SW 195 5,1 C 13,7 C 10,4 km/h (2 Bft)
03.06.2023 06:54 23,9 C 13,7 C 12,8 C 52 % 56 % 1019,2 hPa 0,0 l/m 5,8 km/h (2 Bft) S-SO 150 5,1 C 13,7 C 10,4 km/h (2 Bft)
03.06.2023 06:52 23,8 C 13,6 C 12,7 C 52 % 56 % 1019,2 hPa 0,0 l/m 5,5 km/h (1 Bft) S 172 5,0 C 13,6 C 10,6 km/h (2 Bft)
03.06.2023 06:50 23,9 C 13,6 C 12,7 C 52 % 57 % 1019,2 hPa 0,0 l/m 5,3 km/h (1 Bft) S 172 5,2 C 13,6 C 10,6 km/h (2 Bft)
03.06.2023 06:48 23,9 C 13,5 C 12,6 C 52 % 57 % 1019,2 hPa 0,0 l/m 4,7 km/h (1 Bft) S-SW 195 5,2 C 13,5 C 7,3 km/h (2 Bft)
03.06.2023 06:46 23,9 C 13,5 C 12,6 C 52 % 57 % 1019,2 hPa 0,0 l/m 4,7 km/h (1 Bft) S 172 5,2 C 13,5 C 7,0 km/h (2 Bft)
03.06.2023 06:44 23,9 C 13,4 C 12,5 C 52 % 57 % 1019,2 hPa 0,0 l/m 4,8 km/h (1 Bft) S 172 5,1 C 13,4 C 9,3 km/h (2 Bft)
03.06.2023 06:42 23,9 C 13,3 C 12,5 C 52 % 57 % 1019,1 hPa 0,0 l/m 5,1 km/h (1 Bft) S-SW 195 5,0 C 13,3 C 12,6 km/h (3 Bft)
03.06.2023 06:40 23,9 C 13,3 C 12,4 C 52 % 57 % 1019,1 hPa 0,0 l/m 5,3 km/h (1 Bft) S-SO 150 5,0 C 13,3 C 12,6 km/h (3 Bft)
03.06.2023 06:38 23,9 C 13,2 C 12,4 C 52 % 57 % 1019,1 hPa 0,0 l/m 5,6 km/h (1 Bft) S 172 4,9 C 13,2 C 8,3 km/h (2 Bft)
03.06.2023 06:36 23,9 C 13,2 C 12,3 C 52 % 58 % 1019,1 hPa 0,0 l/m 6,0 km/h (2 Bft) S 172 5,1 C 13,2 C 7,7 km/h (2 Bft)
03.06.2023 06:34 23,9 C 13,1 C 12,2 C 52 % 58 % 1019,1 hPa 0,0 l/m 6,6 km/h (2 Bft) S 172 5,0 C 13,0 C 10,0 km/h (2 Bft)
03.06.2023 06:32 23,9 C 13,0 C 12,2 C 52 % 58 % 1019,1 hPa 0,0 l/m 6,6 km/h (2 Bft) S 172 4,9 C 12,9 C 10,0 km/h (2 Bft)
03.06.2023 06:30 23,9 C 13,0 C 12,1 C 52 % 58 % 1019,1 hPa 0,0 l/m 6,3 km/h (2 Bft) S 172 4,9 C 13,0 C 9,5 km/h (2 Bft)
03.06.2023 06:28 23,9 C 12,9 C 12,1 C 52 % 60 % 1019,1 hPa 0,0 l/m 6,3 km/h (2 Bft) SW 217 5,3 C 12,9 C 9,3 km/h (2 Bft)
03.06.2023 06:26 23,9 C 12,9 C 12,0 C 52 % 60 % 1019,1 hPa 0,0 l/m 6,3 km/h (2 Bft) S 172 5,3 C 12,9 C 13,5 km/h (3 Bft)
03.06.2023 06:24 23,9 C 12,9 C 12,0 C 52 % 60 % 1019,1 hPa 0,0 l/m 6,0 km/h (2 Bft) S-SW 195 5,3 C 12,9 C 13,5 km/h (3 Bft)
03.06.2023 06:22 23,9 C 12,8 C 11,9 C 52 % 60 % 1018,9 hPa 0,0 l/m 6,1 km/h (2 Bft) S 172 5,2 C 12,8 C 7,7 km/h (2 Bft)
03.06.2023 06:20 24,0 C 12,8 C 11,9 C 52 % 60 % 1018,9 hPa 0,0 l/m 6,0 km/h (2 Bft) S-SO 150 5,2 C 12,8 C 13,5 km/h (3 Bft)
03.06.2023 06:18 23,9 C 12,7 C 11,9 C 52 % 61 % 1018,9 hPa 0,0 l/m 6,1 km/h (2 Bft) S-SW 195 5,4 C 12,7 C 13,5 km/h (3 Bft)
03.06.2023 06:16 23,9 C 12,7 C 11,9 C 52 % 61 % 1018,9 hPa 0,0 l/m 6,0 km/h (2 Bft) S 172 5,4 C 12,7 C 9,7 km/h (2 Bft)
03.06.2023 06:14 23,9 C 12,7 C 11,9 C 52 % 61 % 1018,9 hPa 0,0 l/m 5,5 km/h (1 Bft) S-SO 150 5,4 C 12,7 C 10,4 km/h (2 Bft)
03.06.2023 06:12 23,9 C 12,7 C 11,9 C 52 % 61 % 1018,9 hPa 0,0 l/m 5,6 km/h (1 Bft) S 172 5,4 C 12,7 C 10,4 km/h (2 Bft)
03.06.2023 06:10 23,9 C 12,7 C 11,9 C 52 % 61 % 1018,9 hPa 0,0 l/m 5,6 km/h (1 Bft) S-SW 195 5,4 C 12,7 C 9,3 km/h (2 Bft)
03.06.2023 06:08 23,9 C 12,6 C 11,9 C 52 % 61 % 1018,9 hPa 0,0 l/m 5,6 km/h (1 Bft) S 172 5,3 C 12,6 C 7,9 km/h (2 Bft)
03.06.2023 06:06 23,9 C 12,6 C 11,9 C 52 % 61 % 1018,9 hPa 0,0 l/m 5,6 km/h (1 Bft) S 172 5,3 C 12,6 C 7,5 km/h (2 Bft)
03.06.2023 06:04 23,9 C 12,6 C 11,9 C 52 % 61 % 1018,9 hPa 0,0 l/m 5,6 km/h (1 Bft) S 172 5,3 C 12,6 C 11,6 km/h (2 Bft)
03.06.2023 06:02 23,9 C 12,6 C 11,7 C 52 % 61 % 1018,7 hPa 0,0 l/m 5,8 km/h (2 Bft) SW 217 5,3 C 12,6 C 11,6 km/h (2 Bft)
03.06.2023 06:00 23,9 C 12,6 C 11,7 C 52 % 61 % 1018,7 hPa 0,0 l/m 5,3 km/h (1 Bft) S-SW 195 5,3 C 12,6 C 9,3 km/h (2 Bft)
03.06.2023 05:58 23,9 C 12,5 C 11,7 C 52 % 61 % 1018,7 hPa 0,0 l/m 5,5 km/h (1 Bft) S-SO 150 5,2 C 12,5 C 10,6 km/h (2 Bft)
03.06.2023 05:56 23,9 C 12,5 C 11,7 C 52 % 61 % 1018,7 hPa 0,0 l/m 5,3 km/h (1 Bft) S-SW 195 5,2 C 12,5 C 10,6 km/h (2 Bft)
03.06.2023 05:54 23,9 C 12,5 C 11,7 C 52 % 61 % 1018,7 hPa 0,0 l/m 5,5 km/h (1 Bft) SW 217 5,2 C 12,5 C 8,7 km/h (2 Bft)
03.06.2023 05:52 23,9 C 12,5 C 11,7 C 52 % 61 % 1018,7 hPa 0,0 l/m 5,6 km/h (1 Bft) SW 217 5,2 C 12,5 C 9,3 km/h (2 Bft)
03.06.2023 05:50 23,9 C 12,5 C 11,7 C 52 % 61 % 1018,7 hPa 0,0 l/m 6,1 km/h (2 Bft) S-SW 195 5,2 C 12,5 C 9,8 km/h (2 Bft)
03.06.2023 05:48 23,9 C 12,4 C 11,7 C 52 % 61 % 1018,7 hPa 0,0 l/m 6,0 km/h (2 Bft) S-SW 195 5,1 C 12,4 C 10,4 km/h (2 Bft)
03.06.2023 05:46 23,9 C 12,4 C 11,7 C 52 % 61 % 1018,7 hPa 0,0 l/m 5,8 km/h (2 Bft) S 172 5,1 C 12,4 C 10,4 km/h (2 Bft)
03.06.2023 05:44 23,9 C 12,4 C 11,7 C 52 % 61 % 1018,7 hPa 0,0 l/m 5,3 km/h (1 Bft) SW 217 5,1 C 12,4 C 9,5 km/h (2 Bft)
03.06.2023 05:42 23,9 C 12,4 C 11,6 C 52 % 61 % 1018,7 hPa 0,0 l/m 5,5 km/h (1 Bft) S-SO 150 5,1 C 12,4 C 9,5 km/h (2 Bft)
03.06.2023 05:40 24,0 C 12,4 C 11,6 C 52 % 61 % 1018,7 hPa 0,0 l/m 5,6 km/h (1 Bft) SW 217 5,1 C 12,4 C 7,7 km/h (2 Bft)
03.06.2023 05:38 24,0 C 12,4 C 11,6 C 52 % 61 % 1018,7 hPa 0,0 l/m 6,0 km/h (2 Bft) S-SO 150 5,1 C 12,4 C 9,5 km/h (2 Bft)
03.06.2023 05:36 24,0 C 12,4 C 11,7 C 52 % 61 % 1018,7 hPa 0,0 l/m 6,0 km/h (2 Bft) SO 127 5,1 C 12,4 C 9,5 km/h (2 Bft)
03.06.2023 05:34 24,0 C 12,4 C 11,7 C 52 % 61 % 1018,7 hPa 0,0 l/m 6,0 km/h (2 Bft) S 172 5,1 C 12,4 C 9,3 km/h (2 Bft)
03.06.2023 05:32 24,0 C 12,4 C 11,7 C 52 % 61 % 1018,7 hPa 0,0 l/m 6,0 km/h (2 Bft) S-SO 150 5,1 C 12,4 C 10,2 km/h (2 Bft)
03.06.2023 05:30 24,0 C 12,4 C 11,7 C 52 % 61 % 1018,7 hPa 0,0 l/m 5,8 km/h (2 Bft) SW 217 5,1 C 12,4 C 12,7 km/h (3 Bft)
03.06.2023 05:28 24,0 C 12,4 C 11,7 C 52 % 61 % 1018,7 hPa 0,0 l/m 5,5 km/h (1 Bft) SW 217 5,1 C 12,4 C 12,7 km/h (3 Bft)
03.06.2023 05:26 24,0 C 12,4 C 11,7 C 52 % 60 % 1018,7 hPa 0,0 l/m 5,8 km/h (2 Bft) S-SW 195 4,9 C 12,4 C 11,4 km/h (2 Bft)
03.06.2023 05:24 24,0 C 12,5 C 11,7 C 52 % 60 % 1018,7 hPa 0,0 l/m 5,8 km/h (2 Bft) S-SW 195 5,0 C 12,5 C 11,4 km/h (2 Bft)
03.06.2023 05:22 24,0 C 12,5 C 11,7 C 53 % 60 % 1018,2 hPa 0,0 l/m 5,8 km/h (2 Bft) S 172 5,0 C 12,5 C 9,7 km/h (2 Bft)
03.06.2023 05:20 24,0 C 12,5 C 11,7 C 52 % 60 % 1018,2 hPa 0,0 l/m 6,3 km/h (2 Bft) S-SO 150 5,0 C 12,5 C 7,3 km/h (2 Bft)
03.06.2023 05:18 24,0 C 12,5 C 11,7 C 53 % 61 % 1018,2 hPa 0,0 l/m 6,3 km/h (2 Bft) S 172 5,2 C 12,5 C 13,3 km/h (3 Bft)
03.06.2023 05:16 24,0 C 12,5 C 11,7 C 53 % 61 % 1018,2 hPa 0,0 l/m 6,0 km/h (2 Bft) S 172 5,2 C 12,5 C 13,3 km/h (3 Bft)
03.06.2023 05:14 24,0 C 12,5 C 11,7 C 52 % 61 % 1018,2 hPa 0,0 l/m 6,3 km/h (2 Bft) SW 217 5,2 C 12,5 C 7,0 km/h (2 Bft)
03.06.2023 05:12 24,0 C 12,5 C 11,7 C 53 % 61 % 1018,2 hPa 0,0 l/m 6,3 km/h (2 Bft) S-SO 150 5,2 C 12,5 C 11,6 km/h (2 Bft)
03.06.2023 05:10 24,0 C 12,5 C 11,7 C 53 % 61 % 1018,2 hPa 0,0 l/m 6,0 km/h (2 Bft) S-SO 150 5,2 C 12,5 C 11,6 km/h (2 Bft)
03.06.2023 05:08 24,0 C 12,5 C 11,7 C 53 % 61 % 1018,2 hPa 0,0 l/m 5,1 km/h (1 Bft) S 172 5,2 C 12,5 C 4,8 km/h (1 Bft)
03.06.2023 05:06 24,0 C 12,4 C 11,7 C 53 % 61 % 1018,2 hPa 0,0 l/m 5,0 km/h (1 Bft) S 172 5,1 C 12,4 C 15,6 km/h (3 Bft)
03.06.2023 05:04 24,0 C 12,4 C 11,6 C 53 % 61 % 1018,2 hPa 0,0 l/m 4,5 km/h (1 Bft) S 172 5,1 C 12,4 C 15,6 km/h (3 Bft)
03.06.2023 05:02 24,0 C 12,4 C 11,6 C 53 % 60 % 1018,4 hPa 0,0 l/m 3,7 km/h (1 Bft) S-SO 150 4,9 C 12,4 C 7,1 km/h (2 Bft)
03.06.2023 05:00 24,0 C 12,4 C 11,7 C 53 % 60 % 1018,4 hPa 0,0 l/m 3,5 km/h (1 Bft) S 172 4,9 C 12,4 C 5,4 km/h (1 Bft)
03.06.2023 04:58 24,0 C 12,5 C 11,7 C 53 % 60 % 1018,4 hPa 0,0 l/m 3,9 km/h (1 Bft) S 172 5,0 C 12,5 C 7,7 km/h (2 Bft)
03.06.2023 04:56 24,0 C 12,5 C 11,7 C 53 % 60 % 1018,4 hPa 0,0 l/m 3,7 km/h (1 Bft) S-SO 150 5,0 C 12,5 C 7,7 km/h (2 Bft)
03.06.2023 04:54 24,0 C 12,6 C 11,7 C 53 % 60 % 1018,4 hPa 0,0 l/m 3,5 km/h (1 Bft) S 172 5,0 C 12,6 C 6,8 km/h (2 Bft)
03.06.2023 04:52 24,0 C 12,6 C 11,9 C 53 % 60 % 1018,4 hPa 0,0 l/m 4,3 km/h (1 Bft) S 172 5,0 C 12,6 C 8,3 km/h (2 Bft)
03.06.2023 04:50 24,0 C 12,7 C 11,9 C 53 % 59 % 1018,4 hPa 0,0 l/m 5,0 km/h (1 Bft) S-SO 150 4,9 C 12,7 C 8,3 km/h (2 Bft)
03.06.2023 04:48 24,0 C 12,8 C 11,9 C 53 % 59 % 1018,4 hPa 0,0 l/m 5,5 km/h (1 Bft) S-SO 150 5,0 C 12,8 C 4,4 km/h (1 Bft)
03.06.2023 04:46 24,0 C 12,8 C 12,0 C 53 % 60 % 1018,4 hPa 0,0 l/m 5,6 km/h (1 Bft) S 172 5,2 C 12,8 C 8,5 km/h (2 Bft)
03.06.2023 04:44 24,0 C 12,9 C 12,1 C 53 % 60 % 1018,4 hPa 0,0 l/m 6,0 km/h (2 Bft) S-SW 195 5,3 C 12,9 C 10,2 km/h (2 Bft)
03.06.2023 04:42 24,0 C 12,9 C 12,1 C 53 % 60 % 1018,3 hPa 0,0 l/m 6,3 km/h (2 Bft) SW 217 5,3 C 12,9 C 10,2 km/h (2 Bft)
03.06.2023 04:40 24,0 C 12,9 C 12,1 C 53 % 60 % 1018,3 hPa 0,0 l/m 6,0 km/h (2 Bft) S 172 5,3 C 12,9 C 12,6 km/h (3 Bft)
03.06.2023 04:38 24,0 C 12,9 C 12,1 C 53 % 59 % 1018,3 hPa 0,0 l/m 6,0 km/h (2 Bft) S 172 5,1 C 12,9 C 12,6 km/h (3 Bft)
03.06.2023 04:36 24,0 C 12,9 C 12,1 C 53 % 59 % 1018,3 hPa 0,0 l/m 5,6 km/h (1 Bft) SW 217 5,1 C 12,9 C 8,5 km/h (2 Bft)
03.06.2023 04:34 24,0 C 12,9 C 12,1 C 53 % 59 % 1018,3 hPa 0,0 l/m 5,6 km/h (1 Bft) SW 217 5,1 C 12,9 C 8,5 km/h (2 Bft)
03.06.2023 04:32 24,0 C 12,9 C 12,1 C 53 % 59 % 1018,3 hPa 0,0 l/m 4,7 km/h (1 Bft) S 172 5,1 C 12,9 C 10,8 km/h (2 Bft)
03.06.2023 04:30 24,0 C 13,0 C 12,1 C 53 % 57 % 1018,3 hPa 0,0 l/m 4,3 km/h (1 Bft) S 172 4,7 C 13,0 C 10,8 km/h (2 Bft)
03.06.2023 04:28 24,1 C 12,9 C 12,1 C 53 % 57 % 1018,3 hPa 0,0 l/m 4,5 km/h (1 Bft) S 172 4,6 C 12,9 C 10,6 km/h (2 Bft)
03.06.2023 04:26 24,1 C 13,0 C 12,1 C 53 % 57 % 1018,3 hPa 0,0 l/m 4,7 km/h (1 Bft) S 172 4,7 C 13,0 C 9,5 km/h (2 Bft)
03.06.2023 04:24 24,1 C 13,0 C 12,2 C 53 % 57 % 1018,3 hPa 0,0 l/m 4,5 km/h (1 Bft) S 172 4,7 C 13,0 C 9,5 km/h (2 Bft)
03.06.2023 04:22 24,1 C 13,1 C 12,3 C 53 % 57 % 1018,2 hPa 0,0 l/m 5,0 km/h (1 Bft) S-SO 150 4,8 C 13,1 C 6,0 km/h (2 Bft)
03.06.2023 04:20 24,1 C 13,1 C 12,3 C 53 % 57 % 1018,2 hPa 0,0 l/m 5,6 km/h (1 Bft) S 172 4,8 C 13,1 C 7,9 km/h (2 Bft)
03.06.2023 04:18 24,1 C 13,2 C 12,3 C 53 % 57 % 1018,2 hPa 0,0 l/m 5,6 km/h (1 Bft) S-SO 150 4,9 C 13,2 C 7,9 km/h (2 Bft)
03.06.2023 04:16 24,1 C 13,2 C 12,3 C 53 % 57 % 1018,2 hPa 0,0 l/m 5,5 km/h (1 Bft) S-SO 150 4,9 C 13,2 C 7,5 km/h (2 Bft)
03.06.2023 04:14 24,1 C 13,2 C 12,3 C 53 % 56 % 1018,2 hPa 0,0 l/m 5,1 km/h (1 Bft) S-SO 150 4,6 C 13,2 C 8,5 km/h (2 Bft)
03.06.2023 04:12 24,1 C 13,2 C 12,3 C 53 % 56 % 1018,2 hPa 0,0 l/m 4,3 km/h (1 Bft) S 172 4,6 C 13,2 C 8,5 km/h (2 Bft)
03.06.2023 04:10 24,1 C 13,2 C 12,3 C 53 % 56 % 1018,2 hPa 0,0 l/m 3,9 km/h (1 Bft) S-SO 150 4,6 C 13,2 C 6,0 km/h (2 Bft)
03.06.2023 04:08 24,1 C 13,2 C 12,4 C 53 % 56 % 1018,2 hPa 0,0 l/m 4,3 km/h (1 Bft) S 172 4,6 C 13,2 C 8,7 km/h (2 Bft)
03.06.2023 04:06 24,1 C 13,2 C 12,4 C 53 % 56 % 1018,2 hPa 0,0 l/m 4,5 km/h (1 Bft) S-SO 150 4,6 C 13,2 C 10,0 km/h (2 Bft)
03.06.2023 04:04 24,1 C 13,3 C 12,6 C 53 % 56 % 1018,2 hPa 0,0 l/m 5,0 km/h (1 Bft) S-SW 195 4,7 C 13,3 C 10,0 km/h (2 Bft)
03.06.2023 04:02 24,1 C 13,4 C 12,6 C 53 % 56 % 1018,2 hPa 0,0 l/m 5,6 km/h (1 Bft) S 172 4,8 C 13,4 C 5,2 km/h (1 Bft)
03.06.2023 04:00 24,1 C 13,5 C 12,7 C 53 % 56 % 1018,2 hPa 0,0 l/m 6,4 km/h (2 Bft) S-SO 150 4,9 C 13,5 C 7,1 km/h (2 Bft)
03.06.2023 03:58 24,1 C 13,5 C 12,7 C 53 % 56 % 1018,2 hPa 0,0 l/m 7,1 km/h (2 Bft) S-SO 150 4,9 C 13,1 C 8,5 km/h (2 Bft)
03.06.2023 03:56 24,1 C 13,6 C 12,8 C 53 % 56 % 1018,2 hPa 0,0 l/m 7,2 km/h (2 Bft) S-SO 150 5,0 C 13,1 C 8,5 km/h (2 Bft)
03.06.2023 03:54 24,1 C 13,6 C 12,8 C 53 % 55 % 1018,2 hPa 0,0 l/m 7,4 km/h (2 Bft) S 172 4,7 C 13,0 C 7,5 km/h (2 Bft)
03.06.2023 03:52 24,1 C 13,6 C 12,8 C 53 % 55 % 1018,2 hPa 0,0 l/m 7,6 km/h (2 Bft) S-SO 150 4,7 C 12,9 C 9,8 km/h (2 Bft)
03.06.2023 03:50 24,1 C 13,7 C 12,9 C 53 % 55 % 1018,2 hPa 0,0 l/m 8,0 km/h (2 Bft) S 172 4,8 C 12,7 C 10,8 km/h (2 Bft)
03.06.2023 03:48 24,2 C 13,7 C 12,9 C 53 % 55 % 1018,2 hPa 0,0 l/m 7,7 km/h (2 Bft) S-SO 150 4,8 C 12,9 C 10,8 km/h (2 Bft)
03.06.2023 03:46 24,1 C 13,7 C 12,9 C 53 % 55 % 1018,2 hPa 0,0 l/m 7,6 km/h (2 Bft) S 172 4,8 C 13,0 C 13,7 km/h (3 Bft)
03.06.2023 03:44 24,2 C 13,7 C 12,9 C 53 % 55 % 1018,2 hPa 0,0 l/m 7,9 km/h (2 Bft) S-SO 150 4,8 C 12,8 C 13,7 km/h (3 Bft)
03.06.2023 03:42 24,1 C 13,8 C 12,9 C 53 % 55 % 1018,3 hPa 0,0 l/m 8,2 km/h (2 Bft) S 172 4,9 C 12,7 C 11,4 km/h (2 Bft)
03.06.2023 03:40 24,2 C 13,8 C 13,0 C 53 % 55 % 1018,3 hPa 0,0 l/m 8,4 km/h (2 Bft) SO 127 4,9 C 12,6 C 9,8 km/h (2 Bft)
03.06.2023 03:38 24,1 C 13,8 C 13,0 C 53 % 55 % 1018,3 hPa 0,0 l/m 8,4 km/h (2 Bft) S 172 4,9 C 12,6 C 10,0 km/h (2 Bft)
03.06.2023 03:36 24,1 C 13,9 C 13,1 C 53 % 55 % 1018,3 hPa 0,0 l/m 8,2 km/h (2 Bft) S-SO 150 5,0 C 12,8 C 10,0 km/h (2 Bft)
03.06.2023 03:34 24,2 C 13,9 C 13,1 C 53 % 55 % 1018,3 hPa 0,0 l/m 7,9 km/h (2 Bft) S-SO 150 5,0 C 13,0 C 13,1 km/h (3 Bft)
03.06.2023 03:32 24,2 C 13,8 C 13,0 C 53 % 55 % 1018,3 hPa 0,0 l/m 7,2 km/h (2 Bft) S-SO 150 4,9 C 13,3 C 14,5 km/h (3 Bft)
03.06.2023 03:30 24,2 C 13,8 C 13,0 C 53 % 54 % 1018,3 hPa 0,0 l/m 6,6 km/h (2 Bft) S-SO 150 4,7 C 13,7 C 14,5 km/h (3 Bft)
03.06.2023 03:28 24,2 C 13,8 C 13,0 C 53 % 54 % 1018,3 hPa 0,0 l/m 6,3 km/h (2 Bft) SO 127 4,7 C 13,8 C 11,8 km/h (2 Bft)
03.06.2023 03:26 24,2 C 13,9 C 13,1 C 53 % 54 % 1018,3 hPa 0,0 l/m 6,6 km/h (2 Bft) O-SO 105 4,7 C 13,8 C 12,6 km/h (3 Bft)
03.06.2023 03:24 24,2 C 13,9 C 13,1 C 53 % 54 % 1018,3 hPa 0,0 l/m 6,9 km/h (2 Bft) O-SO 105 4,7 C 13,6 C 12,6 km/h (3 Bft)
03.06.2023 03:22 24,2 C 14,0 C 13,2 C 53 % 54 % 1018,4 hPa 0,0 l/m 7,1 km/h (2 Bft) S-SO 150 4,8 C 13,6 C 9,1 km/h (2 Bft)
03.06.2023 03:20 24,2 C 14,0 C 13,2 C 53 % 54 % 1018,4 hPa 0,0 l/m 7,4 km/h (2 Bft) S-SO 150 4,8 C 13,4 C 12,2 km/h (2 Bft)
03.06.2023 03:18 24,2 C 14,0 C 13,2 C 53 % 53 % 1018,4 hPa 0,0 l/m 7,7 km/h (2 Bft) S 172 4,6 C 13,2 C 12,2 km/h (2 Bft)
03.06.2023 03:16 24,2 C 14,1 C 13,3 C 53 % 53 % 1018,4 hPa 0,0 l/m 7,7 km/h (2 Bft) S-SO 150 4,7 C 13,3 C 12,7 km/h (3 Bft)
03.06.2023 03:14 24,2 C 14,1 C 13,3 C 53 % 53 % 1018,4 hPa 0,0 l/m 7,6 km/h (2 Bft) SO 127 4,7 C 13,4 C 15,8 km/h (3 Bft)
03.06.2023 03:12 24,2 C 14,1 C 13,3 C 53 % 53 % 1018,4 hPa 0,0 l/m 8,2 km/h (2 Bft) O-SO 105 4,7 C 13,0 C 15,8 km/h (3 Bft)
03.06.2023 03:10 24,2 C 14,1 C 13,3 C 53 % 53 % 1018,4 hPa 0,0 l/m 7,9 km/h (2 Bft) SO 127 4,7 C 13,2 C 18,3 km/h (3 Bft)
03.06.2023 03:07 24,2 C 14,1 C 13,3 C 53 % 53 % 1018,4 hPa 0,0 l/m 7,9 km/h (2 Bft) S-SO 150 4,7 C 13,2 C 11,8 km/h (2 Bft)
03.06.2023 03:04 24,2 C 14,2 C 13,4 C 53 % 53 % 1018,4 hPa 0,0 l/m 8,2 km/h (2 Bft) S-SO 150 4,8 C 13,2 C 13,3 km/h (3 Bft)
03.06.2023 03:02 24,2 C 14,2 C 13,4 C 53 % 53 % 1018,4 hPa 0,0 l/m 8,2 km/h (2 Bft) S-SO 150 4,8 C 13,2 C 13,3 km/h (3 Bft)
03.06.2023 03:00 24,2 C 14,2 C 13,4 C 53 % 53 % 1018,4 hPa 0,0 l/m 7,7 km/h (2 Bft) S-SO 150 4,8 C 13,4 C 9,7 km/h (2 Bft)
03.06.2023 02:58 24,2 C 14,3 C 13,5 C 53 % 53 % 1018,4 hPa 0,0 l/m 7,7 km/h (2 Bft) SO 127 4,9 C 13,5 C 9,7 km/h (2 Bft)
03.06.2023 02:56 24,2 C 14,3 C 13,5 C 53 % 52 % 1018,4 hPa 0,0 l/m 7,7 km/h (2 Bft) SO 127 4,6 C 13,5 C 9,7 km/h (2 Bft)
03.06.2023 02:54 24,2 C 14,3 C 13,5 C 53 % 52 % 1018,4 hPa 0,0 l/m 8,0 km/h (2 Bft) S 172 4,6 C 13,4 C 9,7 km/h (2 Bft)
03.06.2023 02:52 24,2 C 14,3 C 13,5 C 53 % 52 % 1018,4 hPa 0,0 l/m 7,7 km/h (2 Bft) S-SO 150 4,6 C 13,5 C 10,0 km/h (2 Bft)
03.06.2023 02:50 24,2 C 14,4 C 13,6 C 53 % 52 % 1018,4 hPa 0,0 l/m 7,7 km/h (2 Bft) SO 127 4,7 C 13,6 C 10,4 km/h (2 Bft)
03.06.2023 02:48 24,2 C 14,4 C 13,6 C 53 % 52 % 1018,4 hPa 0,0 l/m 7,6 km/h (2 Bft) SO 127 4,7 C 13,7 C 10,4 km/h (2 Bft)
03.06.2023 02:46 24,2 C 14,4 C 13,6 C 53 % 52 % 1018,4 hPa 0,0 l/m 7,7 km/h (2 Bft) SO 127 4,7 C 13,6 C 18,0 km/h (3 Bft)
03.06.2023 02:44 24,2 C 14,4 C 13,6 C 53 % 52 % 1018,4 hPa 0,0 l/m 7,7 km/h (2 Bft) S-SO 150 4,7 C 13,6 C 18,0 km/h (3 Bft)
03.06.2023 02:42 24,2 C 14,4 C 13,6 C 53 % 51 % 1018,2 hPa 0,0 l/m 7,4 km/h (2 Bft) SO 127 4,4 C 13,8 C 10,0 km/h (2 Bft)
03.06.2023 02:40 24,2 C 14,4 C 13,7 C 53 % 51 % 1018,2 hPa 0,0 l/m 7,4 km/h (2 Bft) S-SO 150 4,4 C 13,8 C 10,6 km/h (2 Bft)
03.06.2023 02:38 24,2 C 14,5 C 13,7 C 53 % 51 % 1018,2 hPa 0,0 l/m 7,7 km/h (2 Bft) S-SO 150 4,5 C 13,7 C 10,6 km/h (2 Bft)
03.06.2023 02:36 24,2 C 14,5 C 13,7 C 53 % 51 % 1018,2 hPa 0,0 l/m 7,7 km/h (2 Bft) S-SO 150 4,5 C 13,7 C 12,7 km/h (3 Bft)
03.06.2023 02:34 24,2 C 14,5 C 13,7 C 53 % 51 % 1018,2 hPa 0,0 l/m 7,9 km/h (2 Bft) S 172 4,5 C 13,6 C 12,7 km/h (3 Bft)
03.06.2023 02:32 24,2 C 14,6 C 13,8 C 53 % 51 % 1018,2 hPa 0,0 l/m 7,2 km/h (2 Bft) S-SO 150 4,6 C 14,1 C 8,5 km/h (2 Bft)
03.06.2023 02:30 24,2 C 14,6 C 13,8 C 53 % 51 % 1018,2 hPa 0,0 l/m 7,2 km/h (2 Bft) S-SO 150 4,6 C 14,1 C 13,9 km/h (3 Bft)
03.06.2023 02:28 24,2 C 14,6 C 13,8 C 53 % 51 % 1018,2 hPa 0,0 l/m 7,1 km/h (2 Bft) S-SO 150 4,6 C 14,2 C 13,9 km/h (3 Bft)
03.06.2023 02:26 24,2 C 14,6 C 13,8 C 53 % 51 % 1018,2 hPa 0,0 l/m 6,9 km/h (2 Bft) S-SO 150 4,6 C 14,3 C 13,1 km/h (3 Bft)
03.06.2023 02:24 24,2 C 14,6 C 13,8 C 53 % 51 % 1018,2 hPa 0,0 l/m 7,1 km/h (2 Bft) S 172 4,6 C 14,2 C 12,0 km/h (2 Bft)
03.06.2023 02:22 24,2 C 14,6 C 13,8 C 53 % 51 % 1018,2 hPa 0,0 l/m 7,1 km/h (2 Bft) S-SO 150 4,6 C 14,2 C 13,3 km/h (3 Bft)
03.06.2023 02:20 24,2 C 14,6 C 13,8 C 53 % 50 % 1018,2 hPa 0,0 l/m 6,9 km/h (2 Bft) S-SO 150 4,3 C 14,3 C 13,3 km/h (3 Bft)
03.06.2023 02:18 24,2 C 14,7 C 13,9 C 53 % 50 % 1018,2 hPa 0,0 l/m 7,6 km/h (2 Bft) S-SO 150 4,4 C 14,0 C 10,2 km/h (2 Bft)
03.06.2023 02:16 24,2 C 14,7 C 13,9 C 53 % 50 % 1018,2 hPa 0,0 l/m 7,1 km/h (2 Bft) S-SO 150 4,4 C 14,3 C 12,6 km/h (3 Bft)
03.06.2023 02:14 24,2 C 14,7 C 13,9 C 53 % 50 % 1018,2 hPa 0,0 l/m 7,4 km/h (2 Bft) S-SO 150 4,4 C 14,1 C 12,6 km/h (3 Bft)
03.06.2023 02:12 24,2 C 14,7 C 13,9 C 53 % 50 % 1018,2 hPa 0,0 l/m 7,2 km/h (2 Bft) SO 127 4,4 C 14,2 C 12,2 km/h (2 Bft)
03.06.2023 02:10 24,2 C 14,7 C 13,9 C 53 % 50 % 1018,2 hPa 0,0 l/m 7,2 km/h (2 Bft) S-SO 150 4,4 C 14,2 C 12,6 km/h (3 Bft)
03.06.2023 02:08 24,2 C 14,7 C 13,9 C 53 % 50 % 1018,2 hPa 0,0 l/m 7,1 km/h (2 Bft) S-SO 150 4,4 C 14,3 C 12,6 km/h (3 Bft)
03.06.2023 02:06 24,2 C 14,8 C 14,0 C 53 % 49 % 1018,2 hPa 0,0 l/m 7,1 km/h (2 Bft) S-SO 150 4,2 C 14,4 C 10,6 km/h (2 Bft)
03.06.2023 02:04 24,2 C 14,8 C 14,0 C 53 % 49 % 1018,2 hPa 0,0 l/m 7,1 km/h (2 Bft) S-SO 150 4,2 C 14,4 C 10,2 km/h (2 Bft)
03.06.2023 02:02 24,2 C 14,8 C 14,0 C 53 % 49 % 1018,2 hPa 0,0 l/m 7,4 km/h (2 Bft) O-SO 105 4,2 C 14,2 C 11,2 km/h (2 Bft)
03.06.2023 02:00 24,2 C 14,9 C 14,1 C 53 % 49 % 1018,2 hPa 0,0 l/m 7,9 km/h (2 Bft) S-SO 150 4,3 C 14,1 C 11,2 km/h (2 Bft)
03.06.2023 01:58 24,2 C 14,9 C 14,1 C 53 % 49 % 1018,2 hPa 0,0 l/m 7,7 km/h (2 Bft) S-SO 150 4,3 C 14,2 C 11,0 km/h (2 Bft)
03.06.2023 01:56 24,2 C 14,9 C 14,1 C 53 % 49 % 1018,2 hPa 0,0 l/m 7,7 km/h (2 Bft) O-SO 105 4,3 C 14,2 C 8,1 km/h (2 Bft)
03.06.2023 01:54 24,3 C 15,0 C 14,1 C 53 % 49 % 1018,2 hPa 0,0 l/m 8,2 km/h (2 Bft) SO 127 4,4 C 14,0 C 13,7 km/h (3 Bft)
03.06.2023 01:52 24,2 C 15,0 C 14,1 C 53 % 48 % 1018,2 hPa 0,0 l/m 8,9 km/h (2 Bft) S-SO 150 4,1 C 13,6 C 13,7 km/h (3 Bft)
03.06.2023 01:50 24,2 C 15,0 C 14,1 C 53 % 48 % 1018,2 hPa 0,0 l/m 9,0 km/h (2 Bft) S-SO 150 4,1 C 13,6 C 18,2 km/h (3 Bft)
03.06.2023 01:48 24,3 C 15,0 C 14,2 C 54 % 48 % 1018,2 hPa 0,0 l/m 9,0 km/h (2 Bft) S-SO 150 4,1 C 13,6 C 10,2 km/h (2 Bft)
03.06.2023 01:46 24,3 C 15,1 C 14,2 C 53 % 48 % 1018,2 hPa 0,0 l/m 9,0 km/h (2 Bft) S-SO 150 4,2 C 13,7 C 16,2 km/h (3 Bft)
03.06.2023 01:44 24,3 C 15,0 C 14,2 C 53 % 48 % 1018,2 hPa 0,0 l/m 8,9 km/h (2 Bft) S-SO 150 4,1 C 13,6 C 18,2 km/h (3 Bft)
03.06.2023 01:42 24,3 C 15,0 C 14,1 C 53 % 47 % 1018,3 hPa 0,0 l/m 8,5 km/h (2 Bft) SO 127 3,8 C 13,8 C 18,2 km/h (3 Bft)
03.06.2023 01:40 24,3 C 15,0 C 14,1 C 53 % 47 % 1018,3 hPa 0,0 l/m 7,4 km/h (2 Bft) SO 127 3,8 C 14,4 C 12,7 km/h (3 Bft)
03.06.2023 01:38 24,3 C 15,1 C 14,2 C 53 % 47 % 1018,3 hPa 0,0 l/m 7,1 km/h (2 Bft) S-SO 150 3,9 C 14,7 C 12,7 km/h (3 Bft)
03.06.2023 01:36 24,3 C 15,1 C 14,2 C 53 % 47 % 1018,3 hPa 0,0 l/m 7,6 km/h (2 Bft) S-SO 150 3,9 C 14,4 C 10,6 km/h (2 Bft)
03.06.2023 01:34 24,3 C 15,1 C 14,2 C 54 % 47 % 1018,3 hPa 0,0 l/m 7,7 km/h (2 Bft) SO 127 3,9 C 14,4 C 9,1 km/h (2 Bft)
03.06.2023 01:32 24,3 C 15,1 C 14,2 C 54 % 47 % 1018,3 hPa 0,0 l/m 7,2 km/h (2 Bft) SO 127 3,9 C 14,6 C 9,1 km/h (2 Bft)
03.06.2023 01:30 24,3 C 15,1 C 14,2 C 54 % 47 % 1018,3 hPa 0,0 l/m 6,9 km/h (2 Bft) SO 127 3,9 C 14,8 C 9,1 km/h (2 Bft)
03.06.2023 01:28 24,3 C 15,1 C 14,2 C 54 % 47 % 1018,3 hPa 0,0 l/m 6,8 km/h (2 Bft) S 172 3,9 C 14,9 C 13,3 km/h (3 Bft)
03.06.2023 01:26 24,2 C 15,0 C 14,1 C 54 % 47 % 1018,3 hPa 0,0 l/m 6,4 km/h (2 Bft) SO 127 3,8 C 15,0 C 13,3 km/h (3 Bft)
03.06.2023 01:24 24,2 C 15,0 C 14,1 C 54 % 46 % 1018,3 hPa 0,0 l/m 6,0 km/h (2 Bft) O-SO 105 3,5 C 15,0 C 11,0 km/h (2 Bft)
03.06.2023 01:22 24,2 C 15,0 C 14,1 C 54 % 46 % 1018,5 hPa 0,0 l/m 6,0 km/h (2 Bft) S-SO 150 3,5 C 15,0 C 9,3 km/h (2 Bft)
03.06.2023 01:20 24,2 C 15,0 C 14,1 C 54 % 46 % 1018,5 hPa 0,0 l/m 5,6 km/h (1 Bft) S-SO 150 3,5 C 15,0 C 6,6 km/h (2 Bft)
03.06.2023 01:18 24,2 C 15,0 C 14,1 C 54 % 46 % 1018,5 hPa 0,0 l/m 5,8 km/h (2 Bft) SO 127 3,5 C 15,0 C 7,9 km/h (2 Bft)
03.06.2023 01:16 24,2 C 15,0 C 14,1 C 54 % 46 % 1018,5 hPa 0,0 l/m 6,0 km/h (2 Bft) SO 127 3,5 C 15,0 C 8,5 km/h (2 Bft)
03.06.2023 01:14 24,2 C 15,0 C 14,1 C 54 % 46 % 1018,5 hPa 0,0 l/m 6,0 km/h (2 Bft) SO 127 3,5 C 15,0 C 8,5 km/h (2 Bft)
03.06.2023 01:12 24,2 C 15,0 C 14,1 C 54 % 45 % 1018,5 hPa 0,0 l/m 5,6 km/h (1 Bft) O-SO 105 3,2 C 15,0 C 6,6 km/h (2 Bft)
03.06.2023 01:10 24,2 C 15,1 C 14,2 C 54 % 45 % 1018,5 hPa 0,0 l/m 6,1 km/h (2 Bft) O-SO 105 3,3 C 15,1 C 8,5 km/h (2 Bft)
03.06.2023 01:08 24,2 C 15,1 C 14,3 C 54 % 45 % 1018,5 hPa 0,0 l/m 6,1 km/h (2 Bft) S-SO 150 3,3 C 15,1 C 9,3 km/h (2 Bft)
03.06.2023 01:06 24,2 C 15,1 C 14,3 C 54 % 45 % 1018,5 hPa 0,0 l/m 6,0 km/h (2 Bft) S-SW 195 3,3 C 15,1 C 9,3 km/h (2 Bft)
03.06.2023 01:04 24,3 C 15,2 C 14,4 C 54 % 44 % 1018,5 hPa 0,0 l/m 6,3 km/h (2 Bft) S-SO 150 3,0 C 15,2 C 9,1 km/h (2 Bft)
03.06.2023 01:02 24,3 C 15,3 C 14,5 C 54 % 44 % 1018,5 hPa 0,0 l/m 6,8 km/h (2 Bft) SO 127 3,1 C 15,1 C 9,1 km/h (2 Bft)
03.06.2023 01:00 24,3 C 15,3 C 14,5 C 54 % 44 % 1018,5 hPa 0,0 l/m 6,9 km/h (2 Bft) SO 127 3,1 C 15,0 C 7,9 km/h (2 Bft)
03.06.2023 00:58 24,3 C 15,4 C 14,6 C 54 % 44 % 1018,5 hPa 0,0 l/m 6,9 km/h (2 Bft) S-SO 150 3,2 C 15,1 C 9,3 km/h (2 Bft)
03.06.2023 00:56 24,2 C 15,5 C 14,7 C 54 % 44 % 1018,5 hPa 0,0 l/m 7,1 km/h (2 Bft) SO 127 3,3 C 15,1 C 10,2 km/h (2 Bft)
03.06.2023 00:54 24,2 C 15,5 C 14,7 C 54 % 43 % 1018,5 hPa 0,0 l/m 7,4 km/h (2 Bft) S-SO 150 3,0 C 14,9 C 13,9 km/h (3 Bft)
03.06.2023 00:52 24,3 C 15,5 C 14,7 C 54 % 43 % 1018,5 hPa 0,0 l/m 7,1 km/h (2 Bft) S-SO 150 3,0 C 15,1 C 13,9 km/h (3 Bft)
03.06.2023 00:50 24,3 C 15,5 C 14,7 C 54 % 43 % 1018,5 hPa 0,0 l/m 6,9 km/h (2 Bft) S-SO 150 3,0 C 15,2 C 9,3 km/h (2 Bft)
03.06.2023 00:48 24,3 C 15,5 C 14,7 C 54 % 43 % 1018,5 hPa 0,0 l/m 7,1 km/h (2 Bft) SO 127 3,0 C 15,1 C 8,9 km/h (2 Bft)
03.06.2023 00:46 24,3 C 15,5 C 14,7 C 54 % 43 % 1018,5 hPa 0,0 l/m 7,1 km/h (2 Bft) S-SO 150 3,0 C 15,1 C 11,6 km/h (2 Bft)
03.06.2023 00:44 24,3 C 15,5 C 14,7 C 54 % 43 % 1018,5 hPa 0,0 l/m 6,8 km/h (2 Bft) S-SO 150 3,0 C 15,3 C 11,6 km/h (2 Bft)
03.06.2023 00:42 24,3 C 15,4 C 14,7 C 54 % 43 % 1018,4 hPa 0,0 l/m 7,1 km/h (2 Bft) S-SO 150 2,9 C 15,0 C 6,2 km/h (2 Bft)
03.06.2023 00:40 24,3 C 15,4 C 14,7 C 54 % 43 % 1018,4 hPa 0,0 l/m 7,6 km/h (2 Bft) S 172 2,9 C 14,7 C 9,8 km/h (2 Bft)
03.06.2023 00:38 24,3 C 15,4 C 14,7 C 54 % 44 % 1018,4 hPa 0,0 l/m 7,9 km/h (2 Bft) O-SO 105 3,2 C 14,6 C 10,0 km/h (2 Bft)
03.06.2023 00:36 24,3 C 15,4 C 14,7 C 54 % 44 % 1018,4 hPa 0,0 l/m 8,0 km/h (2 Bft) S-SO 150 3,2 C 14,5 C 10,0 km/h (2 Bft)
03.06.2023 00:34 24,3 C 15,4 C 14,7 C 54 % 44 % 1018,4 hPa 0,0 l/m 8,0 km/h (2 Bft) S 172 3,2 C 14,5 C 11,8 km/h (2 Bft)
03.06.2023 00:32 24,3 C 15,3 C 14,6 C 54 % 44 % 1018,4 hPa 0,0 l/m 7,9 km/h (2 Bft) SO 127 3,1 C 14,5 C 13,5 km/h (3 Bft)
03.06.2023 00:30 24,3 C 15,2 C 14,5 C 54 % 44 % 1018,4 hPa 0,0 l/m 7,2 km/h (2 Bft) S-SO 150 3,0 C 14,8 C 16,0 km/h (3 Bft)
03.06.2023 00:28 24,3 C 15,2 C 14,4 C 54 % 45 % 1018,4 hPa 0,0 l/m 6,8 km/h (2 Bft) SO 127 3,4 C 15,0 C 16,0 km/h (3 Bft)
03.06.2023 00:26 24,3 C 15,2 C 14,4 C 54 % 45 % 1018,4 hPa 0,0 l/m 6,0 km/h (2 Bft) S-SO 150 3,4 C 15,2 C 12,9 km/h (3 Bft)
03.06.2023 00:24 24,3 C 15,2 C 14,4 C 54 % 45 % 1018,4 hPa 0,0 l/m 5,6 km/h (1 Bft) S-SO 150 3,4 C 15,2 C 9,1 km/h (2 Bft)
03.06.2023 00:22 24,3 C 15,2 C 14,4 C 54 % 44 % 1018,4 hPa 0,0 l/m 5,1 km/h (1 Bft) S-SO 150 3,0 C 15,2 C 12,0 km/h (2 Bft)
03.06.2023 00:20 24,2 C 15,3 C 14,5 C 54 % 44 % 1018,4 hPa 0,0 l/m 5,3 km/h (1 Bft) S-SO 150 3,1 C 15,3 C 12,0 km/h (2 Bft)
03.06.2023 00:18 24,3 C 15,4 C 14,6 C 54 % 44 % 1018,4 hPa 0,0 l/m 5,1 km/h (1 Bft) SO 127 3,2 C 15,4 C 8,5 km/h (2 Bft)
03.06.2023 00:16 24,3 C 15,4 C 14,7 C 54 % 44 % 1018,4 hPa 0,0 l/m 5,3 km/h (1 Bft) O-SO 105 3,2 C 15,4 C 7,5 km/h (2 Bft)
03.06.2023 00:14 24,3 C 15,5 C 14,7 C 54 % 44 % 1018,4 hPa 0,0 l/m 5,5 km/h (1 Bft) O-SO 105 3,3 C 15,5 C 7,5 km/h (2 Bft)
03.06.2023 00:12 24,3 C 15,6 C 14,8 C 54 % 44 % 1018,4 hPa 0,0 l/m 6,4 km/h (2 Bft) O 82 3,4 C 15,6 C 10,6 km/h (2 Bft)
03.06.2023 00:10 24,3 C 15,6 C 14,9 C 54 % 43 % 1018,4 hPa 0,0 l/m 7,1 km/h (2 Bft) O-SO 105 3,1 C 15,2 C 10,6 km/h (2 Bft)
03.06.2023 00:08 24,2 C 15,8 C 15,0 C 54 % 43 % 1018,4 hPa 0,0 l/m 7,4 km/h (2 Bft) S-SO 150 3,3 C 15,3 C 9,8 km/h (2 Bft)
03.06.2023 00:06 24,3 C 15,9 C 15,1 C 54 % 43 % 1018,4 hPa 0,0 l/m 7,9 km/h (2 Bft) O-SO 105 3,3 C 15,1 C 9,8 km/h (2 Bft)
03.06.2023 00:04 24,2 C 15,9 C 15,2 C 54 % 43 % 1018,4 hPa 0,0 l/m 8,0 km/h (2 Bft) SO 127 3,3 C 15,0 C 13,3 km/h (3 Bft)
03.06.2023 00:02 24,2 C 16,0 C 15,2 C 54 % 44 % 1018,2 hPa 0,0 l/m 8,4 km/h (2 Bft) S-SO 150 3,8 C 15,0 C 13,3 km/h (3 Bft)
03.06.2023 00:00 24,2 C 15,9 C 15,2 C 54 % 43 % 1018,2 hPa 0,0 l/m 7,2 km/h (2 Bft) S-SO 150 3,3 C 15,5 C 12,6 km/h (3 Bft)
_ Min-Zeit 09:16 05:00 05:02 10:38 17:12 17:24 - 04:54 - - 17:12 05:00 14:04
Minimum _ 23,6 C 12,4 C 11,6 C 49 % 20 % 1016,9 hPa - 3,5 km/h (1 Bft) - - -1,6 C 12,4 C 4,1 km/h (1 Bft)
_ Max-Zeit 00:06 15:24 15:22 00:00 05:04 10:04 15:46 08:59 - - 06:10 15:24 11:20
Maximum _ 24,3 C 23,4 C 23,2 C 54 % 61 % 1019,7 hPa 0,1 l/m 11,9 km/h
W-SW (2 Bft)
- - 5,4 C 23,4 C 29,5 km/h
SW (5 Bft)
Durchschnitt _ 23,9 C 17,5 C 16,7 C 51 % 41 % 1018,6 hPa #0,1 l/m 7,7 km/h (2 Bft) S - 3,3 C 16,8 C 13,1 km/h (3 Bft)